Wetterdaten: Donnerstag, 20.10.2016
Datum Zeit Temp. A. Feuchte A. Luftdruck Regen Wind Richtung Richtung Sonnenschein ET UV Solar Taupunkt Windchill Windben Empfang
20.10.2016 00:00 8,3 C 97 % 1016,3 hPa 0,0 l/m 2,7 km/h (1 Bft) O-SO 109 0 min 0,000 mm 0,0 UV-I 0 W/m 7,9 C 8,3 C 4,8 km/h (1 Bft) 97,37 %
20.10.2016 00:02 8,2 C 97 % 1016,3 hPa 0,0 l/m 3,4 km/h (1 Bft) O-SO 109 0 min 0,000 mm 0,0 UV-I 0 W/m 7,8 C 8,2 C 4,8 km/h (1 Bft) 97,44 %
20.10.2016 00:04 8,2 C 97 % 1016,2 hPa 0,2 l/m 5,0 km/h (1 Bft) O 100 0 min 0,000 mm 0,0 UV-I 0 W/m 7,8 C 8,2 C 9,7 km/h (2 Bft) 100,00 %
20.10.2016 00:06 8,2 C 97 % 1016,2 hPa 0,0 l/m 5,2 km/h (1 Bft) O-SO 108 0 min 0,000 mm 0,0 UV-I 0 W/m 7,8 C 8,2 C 6,4 km/h (2 Bft) 98,00 %
20.10.2016 00:08 8,2 C 97 % 1016,2 hPa 0,0 l/m 5,4 km/h (1 Bft) O-SO 109 0 min 0,000 mm 0,0 UV-I 0 W/m 7,8 C 8,2 C 9,7 km/h (2 Bft) 96,00 %
20.10.2016 00:10 8,1 C 97 % 1016,2 hPa 0,0 l/m 3,7 km/h (1 Bft) O-SO 121 0 min 0,000 mm 0,0 UV-I 0 W/m 7,7 C 8,1 C 6,4 km/h (2 Bft) 100,00 %
20.10.2016 00:12 8,1 C 97 % 1016,3 hPa 0,0 l/m 4,1 km/h (1 Bft) O-SO 102 0 min 0,000 mm 0,0 UV-I 0 W/m 7,7 C 8,1 C 6,4 km/h (2 Bft) 100,00 %
20.10.2016 00:14 8,1 C 97 % 1016,4 hPa 0,0 l/m 3,2 km/h (1 Bft) O-SO 102 0 min 0,000 mm 0,0 UV-I 0 W/m 7,7 C 8,1 C 6,4 km/h (2 Bft) 100,00 %
20.10.2016 00:16 8,1 C 97 % 1016,3 hPa 0,0 l/m 3,7 km/h (1 Bft) O-SO 102 0 min 0,000 mm 0,0 UV-I 0 W/m 7,7 C 8,1 C 4,8 km/h (1 Bft) 100,00 %
20.10.2016 00:18 8,2 C 97 % 1016,3 hPa 0,0 l/m 4,3 km/h (1 Bft) O 99 0 min 0,000 mm 0,0 UV-I 0 W/m 7,8 C 8,2 C 6,4 km/h (2 Bft) 100,00 %
20.10.2016 00:20 8,2 C 97 % 1016,3 hPa 0,0 l/m 5,7 km/h (1 Bft) O 82 0 min 0,000 mm 0,0 UV-I 0 W/m 7,8 C 8,2 C 9,7 km/h (2 Bft) 100,00 %
20.10.2016 00:22 8,2 C 97 % 1016,3 hPa 0,0 l/m 4,9 km/h (1 Bft) O-NO 78 0 min 0,000 mm 0,0 UV-I 0 W/m 7,8 C 8,2 C 8,0 km/h (2 Bft) 97,87 %
20.10.2016 00:24 8,2 C 98 % 1016,2 hPa 0,0 l/m 3,6 km/h (1 Bft) O-NO 78 0 min 0,000 mm 0,0 UV-I 0 W/m 7,9 C 8,2 C 4,8 km/h (1 Bft) 97,87 %
20.10.2016 00:26 8,2 C 98 % 1016,1 hPa 0,0 l/m 3,7 km/h (1 Bft) O-SO 103 0 min 0,000 mm 0,0 UV-I 0 W/m 7,9 C 8,2 C 6,4 km/h (2 Bft) 96,00 %
20.10.2016 00:28 8,2 C 98 % 1016,0 hPa 0,2 l/m 3,7 km/h (1 Bft) O 80 0 min 0,000 mm 0,0 UV-I 0 W/m 7,9 C 8,2 C 6,4 km/h (2 Bft) 98,00 %
20.10.2016 00:30 8,2 C 98 % 1016,0 hPa 0,0 l/m 4,0 km/h (1 Bft) O-NO 75 0 min 0,000 mm 0,0 UV-I 0 W/m 7,9 C 8,2 C 6,4 km/h (2 Bft) 97,14 %
20.10.2016 00:32 8,2 C 98 % 1016,2 hPa 0,0 l/m 4,9 km/h (1 Bft) O-SO 112 0 min 0,000 mm 0,0 UV-I 0 W/m 7,9 C 8,2 C 9,7 km/h (2 Bft) 97,73 %
20.10.2016 00:34 8,2 C 98 % 1016,3 hPa 0,0 l/m 7,6 km/h (2 Bft) O-SO 110 0 min 0,000 mm 0,0 UV-I 0 W/m 7,9 C 7,3 C 11,3 km/h (2 Bft) 98,11 %
20.10.2016 00:36 8,2 C 98 % 1016,3 hPa 0,0 l/m 4,3 km/h (1 Bft) O-SO 113 0 min 0,000 mm 0,0 UV-I 0 W/m 7,9 C 8,2 C 8,0 km/h (2 Bft) 97,87 %
20.10.2016 00:38 8,2 C 98 % 1016,3 hPa 0,0 l/m 3,7 km/h (1 Bft) O-SO 121 0 min 0,000 mm 0,0 UV-I 0 W/m 7,9 C 8,2 C 4,8 km/h (1 Bft) 98,00 %
20.10.2016 00:40 8,2 C 98 % 1016,2 hPa 0,0 l/m 4,1 km/h (1 Bft) O-SO 119 0 min 0,000 mm 0,0 UV-I 0 W/m 7,9 C 8,2 C 4,8 km/h (1 Bft) 98,11 %
20.10.2016 00:42 8,2 C 98 % 1016,1 hPa 0,0 l/m 4,5 km/h (1 Bft) O-SO 109 0 min 0,000 mm 0,0 UV-I 0 W/m 7,9 C 8,2 C 6,4 km/h (2 Bft) 97,56 %
20.10.2016 00:44 8,2 C 97 % 1016,2 hPa 0,0 l/m 4,8 km/h (1 Bft) O-SO 109 0 min 0,000 mm 0,0 UV-I 0 W/m 7,8 C 8,2 C 6,4 km/h (2 Bft) 96,00 %
20.10.2016 00:46 8,2 C 97 % 1016,2 hPa 0,0 l/m 7,1 km/h (2 Bft) O-SO 109 0 min 0,000 mm 0,0 UV-I 0 W/m 7,8 C 7,7 C 9,7 km/h (2 Bft) 97,37 %
20.10.2016 00:48 8,2 C 97 % 1016,2 hPa 0,0 l/m 5,7 km/h (1 Bft) SO 128 0 min 0,000 mm 0,0 UV-I 0 W/m 7,8 C 8,2 C 6,4 km/h (2 Bft) 98,00 %
20.10.2016 00:50 8,2 C 98 % 1016,2 hPa 0,0 l/m 5,2 km/h (1 Bft) O-SO 119 0 min 0,000 mm 0,0 UV-I 0 W/m 7,9 C 8,2 C 6,4 km/h (2 Bft) 97,87 %
20.10.2016 00:52 8,2 C 98 % 1016,1 hPa 0,0 l/m 5,6 km/h (1 Bft) O-SO 110 0 min 0,000 mm 0,0 UV-I 0 W/m 7,9 C 8,2 C 9,7 km/h (2 Bft) 96,23 %
20.10.2016 00:54 8,2 C 98 % 1016,1 hPa 0,0 l/m 4,6 km/h (1 Bft) O-SO 121 0 min 0,000 mm 0,0 UV-I 0 W/m 7,9 C 8,2 C 6,4 km/h (2 Bft) 97,87 %
20.10.2016 00:56 8,2 C 98 % 1016,1 hPa 0,0 l/m 4,5 km/h (1 Bft) SO 126 0 min 0,000 mm 0,0 UV-I 0 W/m 7,9 C 8,2 C 6,4 km/h (2 Bft) 100,00 %
20.10.2016 00:58 8,2 C 98 % 1016,1 hPa 0,0 l/m 4,6 km/h (1 Bft) SO 125 0 min 0,000 mm 0,0 UV-I 0 W/m 7,9 C 8,2 C 6,4 km/h (2 Bft) 100,00 %
20.10.2016 01:00 8,2 C 98 % 1016,1 hPa 0,0 l/m 4,5 km/h (1 Bft) O-SO 121 0 min 0,000 mm 0,0 UV-I 0 W/m 7,9 C 8,2 C 6,4 km/h (2 Bft) 100,00 %
20.10.2016 01:02 8,2 C 98 % 1016,1 hPa 0,0 l/m 4,4 km/h (1 Bft) O-SO 121 0 min 0,000 mm 0,0 UV-I 0 W/m 7,9 C 8,2 C 6,4 km/h (2 Bft) 97,87 %
20.10.2016 01:04 8,2 C 98 % 1016,1 hPa 0,0 l/m 5,4 km/h (1 Bft) O 96 0 min 0,000 mm 0,0 UV-I 0 W/m 7,9 C 8,2 C 6,4 km/h (2 Bft) 100,00 %
20.10.2016 01:06 8,2 C 98 % 1016,1 hPa 0,0 l/m 6,2 km/h (2 Bft) O-SO 114 0 min 0,000 mm 0,0 UV-I 0 W/m 7,9 C 8,2 C 9,7 km/h (2 Bft) 100,00 %
20.10.2016 01:08 8,2 C 98 % 1016,0 hPa 0,0 l/m 5,0 km/h (1 Bft) O-SO 121 0 min 0,000 mm 0,0 UV-I 0 W/m 7,9 C 8,2 C 8,0 km/h (2 Bft) 95,74 %
20.10.2016 01:10 8,2 C 98 % 1016,0 hPa 0,0 l/m 3,5 km/h (1 Bft) SO 127 0 min 0,000 mm 0,0 UV-I 0 W/m 7,9 C 8,2 C 6,4 km/h (2 Bft) 100,00 %
20.10.2016 01:12 8,2 C 98 % 1016,0 hPa 0,0 l/m 2,1 km/h (1 Bft) SO 128 0 min 0,000 mm 0,0 UV-I 0 W/m 7,9 C 8,2 C 4,8 km/h (1 Bft) 98,46 %
20.10.2016 01:14 8,1 C 98 % 1015,9 hPa 0,2 l/m 2,6 km/h (1 Bft) S-SO 150 0 min 0,000 mm 0,0 UV-I 0 W/m 7,8 C 8,1 C 4,8 km/h (1 Bft) 100,00 %
20.10.2016 01:16 8,1 C 98 % 1016,0 hPa 0,0 l/m 3,3 km/h (1 Bft) S-SO 149 0 min 0,000 mm 0,0 UV-I 0 W/m 7,8 C 8,1 C 8,0 km/h (2 Bft) 100,00 %
20.10.2016 01:18 8,1 C 98 % 1016,0 hPa 0,0 l/m 3,4 km/h (1 Bft) S-SO 148 0 min 0,000 mm 0,0 UV-I 0 W/m 7,8 C 8,1 C 8,0 km/h (2 Bft) 100,00 %
20.10.2016 01:20 8,1 C 98 % 1016,1 hPa 0,0 l/m 2,4 km/h (1 Bft) S-SO 156 0 min 0,000 mm 0,0 UV-I 0 W/m 7,8 C 8,1 C 6,4 km/h (2 Bft) 100,00 %
20.10.2016 01:22 8,1 C 98 % 1016,1 hPa 0,0 l/m 2,7 km/h (1 Bft) S-SO 167 0 min 0,000 mm 0,0 UV-I 0 W/m 7,8 C 8,1 C 6,4 km/h (2 Bft) 95,74 %
20.10.2016 01:24 8,1 C 98 % 1016,2 hPa 0,2 l/m 3,8 km/h (1 Bft) S 188 0 min 0,000 mm 0,0 UV-I 0 W/m 7,8 C 8,1 C 6,4 km/h (2 Bft) 100,00 %
20.10.2016 01:26 8,1 C 98 % 1016,1 hPa 0,0 l/m 3,2 km/h (1 Bft) S-SO 165 0 min 0,000 mm 0,0 UV-I 0 W/m 7,8 C 8,1 C 6,4 km/h (2 Bft) 97,44 %
20.10.2016 01:28 8,1 C 98 % 1016,1 hPa 0,0 l/m 3,0 km/h (1 Bft) SO 143 0 min 0,000 mm 0,0 UV-I 0 W/m 7,8 C 8,1 C 6,4 km/h (2 Bft) 98,00 %
20.10.2016 01:30 8,1 C 98 % 1016,1 hPa 0,2 l/m 3,9 km/h (1 Bft) S-SO 161 0 min 0,000 mm 0,0 UV-I 0 W/m 7,8 C 8,1 C 6,4 km/h (2 Bft) 100,00 %
20.10.2016 01:32 8,1 C 98 % 1016,1 hPa 0,0 l/m 4,5 km/h (1 Bft) S-SO 158 0 min 0,000 mm 0,0 UV-I 0 W/m 7,8 C 8,1 C 8,0 km/h (2 Bft) 100,00 %
20.10.2016 01:34 8,1 C 98 % 1016,2 hPa 0,0 l/m 4,2 km/h (1 Bft) S-SO 161 0 min 0,000 mm 0,0 UV-I 0 W/m 7,8 C 8,1 C 8,0 km/h (2 Bft) 100,00 %
20.10.2016 01:36 8,1 C 98 % 1016,2 hPa 0,0 l/m 3,5 km/h (1 Bft) S-SO 159 0 min 0,000 mm 0,0 UV-I 0 W/m 7,8 C 8,1 C 6,4 km/h (2 Bft) 100,00 %
20.10.2016 01:38 8,1 C 98 % 1016,2 hPa 0,0 l/m 3,6 km/h (1 Bft) S-SO 148 0 min 0,000 mm 0,0 UV-I 0 W/m 7,8 C 8,1 C 8,0 km/h (2 Bft) 100,00 %
20.10.2016 01:40 8,1 C 98 % 1016,2 hPa 0,2 l/m 2,0 km/h (1 Bft) SO 141 0 min 0,000 mm 0,0 UV-I 0 W/m 7,8 C 8,1 C 4,8 km/h (1 Bft) 100,00 %
20.10.2016 01:42 8,1 C 98 % 1016,2 hPa 0,0 l/m 2,0 km/h (1 Bft) S-SO 147 0 min 0,000 mm 0,0 UV-I 0 W/m 7,8 C 8,1 C 4,8 km/h (1 Bft) 100,00 %
20.10.2016 01:44 8,1 C 98 % 1016,2 hPa 0,2 l/m 3,7 km/h (1 Bft) SO 140 0 min 0,000 mm 0,0 UV-I 0 W/m 7,8 C 8,1 C 4,8 km/h (1 Bft) 97,37 %
20.10.2016 01:46 8,1 C 98 % 1016,2 hPa 0,0 l/m 2,6 km/h (1 Bft) S-SO 147 0 min 0,000 mm 0,0 UV-I 0 W/m 7,8 C 8,1 C 4,8 km/h (1 Bft) 98,00 %
20.10.2016 01:48 8,1 C 98 % 1016,1 hPa 0,0 l/m 2,2 km/h (1 Bft) S-SO 153 0 min 0,000 mm 0,0 UV-I 0 W/m 7,8 C 8,1 C 4,8 km/h (1 Bft) 100,00 %
20.10.2016 01:50 8,1 C 98 % 1016,1 hPa 0,0 l/m 1,5 km/h (1 Bft) S-SO 155 0 min 0,000 mm 0,0 UV-I 0 W/m 7,8 C 8,1 C 3,2 km/h (1 Bft) 98,00 %
20.10.2016 01:52 8,1 C 98 % 1016,0 hPa 0,0 l/m 1,3 km/h (1 Bft) S-SO 155 0 min 0,000 mm 0,0 UV-I 0 W/m 7,8 C 8,1 C 4,8 km/h (1 Bft) 100,00 %
20.10.2016 01:54 8,1 C 98 % 1016,1 hPa 0,0 l/m 2,0 km/h (1 Bft) S-SO 155 0 min 0,000 mm 0,0 UV-I 0 W/m 7,8 C 8,1 C 3,2 km/h (1 Bft) 98,00 %
20.10.2016 01:56 8,1 C 98 % 1016,1 hPa 0,0 l/m 1,6 km/h (1 Bft) S-SO 155 0 min 0,000 mm 0,0 UV-I 0 W/m 7,8 C 8,1 C 3,2 km/h (1 Bft) 97,56 %
20.10.2016 01:58 8,1 C 98 % 1016,2 hPa 0,2 l/m 1,2 km/h (1 Bft) S-SO 155 0 min 0,000 mm 0,0 UV-I 0 W/m 7,8 C 8,1 C 3,2 km/h (1 Bft) 98,00 %
20.10.2016 02:00 8,1 C 98 % 1016,2 hPa 0,0 l/m 0,8 km/h (0 Bft) S-SO 155 0 min 0,000 mm 0,0 UV-I 0 W/m 7,8 C 8,1 C 3,2 km/h (1 Bft) 100,00 %
20.10.2016 02:02 8,1 C 98 % 1016,3 hPa 0,0 l/m 0,8 km/h (0 Bft) S-SO 155 0 min 0,000 mm 0,0 UV-I 0 W/m 7,8 C 8,1 C 3,2 km/h (1 Bft) 100,00 %
20.10.2016 02:04 8,1 C 98 % 1016,3 hPa 0,0 l/m 1,7 km/h (1 Bft) S-SO 155 0 min 0,000 mm 0,0 UV-I 0 W/m 7,8 C 8,1 C 3,2 km/h (1 Bft) 100,00 %
20.10.2016 02:06 8,1 C 98 % 1016,4 hPa 0,0 l/m 2,6 km/h (1 Bft) S 190 0 min 0,000 mm 0,0 UV-I 0 W/m 7,8 C 8,1 C 6,4 km/h (2 Bft) 100,00 %
20.10.2016 02:08 8,1 C 98 % 1016,3 hPa 0,2 l/m 3,4 km/h (1 Bft) S-SW 194 0 min 0,000 mm 0,0 UV-I 0 W/m 7,8 C 8,1 C 4,8 km/h (1 Bft) 100,00 %
20.10.2016 02:10 8,1 C 98 % 1016,4 hPa 0,0 l/m 3,8 km/h (1 Bft) SW 221 0 min 0,000 mm 0,0 UV-I 0 W/m 7,8 C 8,1 C 4,8 km/h (1 Bft) 100,00 %
20.10.2016 02:12 8,1 C 98 % 1016,5 hPa 0,0 l/m 4,9 km/h (1 Bft) SW 232 0 min 0,000 mm 0,0 UV-I 0 W/m 7,8 C 8,1 C 6,4 km/h (2 Bft) 100,00 %
20.10.2016 02:14 8,1 C 98 % 1016,4 hPa 0,0 l/m 3,6 km/h (1 Bft) SW 228 0 min 0,000 mm 0,0 UV-I 0 W/m 7,8 C 8,1 C 6,4 km/h (2 Bft) 97,22 %
20.10.2016 02:16 8,0 C 98 % 1016,4 hPa 0,0 l/m 3,5 km/h (1 Bft) S 181 0 min 0,000 mm 0,0 UV-I 0 W/m 7,7 C 8,0 C 6,4 km/h (2 Bft) 100,00 %
20.10.2016 02:18 7,9 C 98 % 1016,4 hPa 0,2 l/m 1,7 km/h (1 Bft) S 181 0 min 0,000 mm 0,0 UV-I 0 W/m 7,6 C 7,9 C 3,2 km/h (1 Bft) 97,87 %
20.10.2016 02:20 7,9 C 98 % 1016,4 hPa 0,0 l/m 2,9 km/h (1 Bft) S-SO 163 0 min 0,000 mm 0,0 UV-I 0 W/m 7,6 C 7,9 C 6,4 km/h (2 Bft) 96,23 %
20.10.2016 02:22 7,8 C 97 % 1016,4 hPa 0,2 l/m 2,5 km/h (1 Bft) S 178 0 min 0,000 mm 0,0 UV-I 0 W/m 7,4 C 7,8 C 3,2 km/h (1 Bft) 97,87 %
20.10.2016 02:24 7,8 C 98 % 1016,5 hPa 0,0 l/m 3,6 km/h (1 Bft) S-SW 197 0 min 0,000 mm 0,0 UV-I 0 W/m 7,5 C 7,8 C 4,8 km/h (1 Bft) 96,00 %
20.10.2016 02:26 7,8 C 97 % 1016,5 hPa 0,0 l/m 3,3 km/h (1 Bft) SW 215 0 min 0,000 mm 0,0 UV-I 0 W/m 7,4 C 7,8 C 6,4 km/h (2 Bft) 97,56 %
20.10.2016 02:28 7,8 C 98 % 1016,4 hPa 0,2 l/m 4,3 km/h (1 Bft) W-SW 239 0 min 0,000 mm 0,0 UV-I 0 W/m 7,5 C 7,8 C 6,4 km/h (2 Bft) 96,00 %
20.10.2016 02:30 7,8 C 97 % 1016,4 hPa 0,2 l/m 4,7 km/h (1 Bft) SW 221 0 min 0,000 mm 0,0 UV-I 0 W/m 7,4 C 7,8 C 6,4 km/h (2 Bft) 97,87 %
20.10.2016 02:32 7,8 C 97 % 1016,4 hPa 0,0 l/m 3,2 km/h (1 Bft) SW 221 0 min 0,000 mm 0,0 UV-I 0 W/m 7,4 C 7,8 C 4,8 km/h (1 Bft) 97,37 %
20.10.2016 02:34 7,8 C 97 % 1016,4 hPa 0,0 l/m 3,3 km/h (1 Bft) SW 221 0 min 0,000 mm 0,0 UV-I 0 W/m 7,4 C 7,8 C 4,8 km/h (1 Bft) 97,87 %
20.10.2016 02:36 7,7 C 97 % 1016,4 hPa 0,2 l/m 3,3 km/h (1 Bft) SW 223 0 min 0,000 mm 0,0 UV-I 0 W/m 7,3 C 7,7 C 4,8 km/h (1 Bft) 98,00 %
20.10.2016 02:38 7,7 C 97 % 1016,3 hPa 0,0 l/m 2,5 km/h (1 Bft) SW 223 0 min 0,000 mm 0,0 UV-I 0 W/m 7,3 C 7,7 C 3,2 km/h (1 Bft) 97,56 %
20.10.2016 02:40 7,7 C 97 % 1016,3 hPa 0,2 l/m 2,0 km/h (1 Bft) SW 223 0 min 0,000 mm 0,0 UV-I 0 W/m 7,3 C 7,7 C 3,2 km/h (1 Bft) 97,56 %
20.10.2016 02:42 7,7 C 97 % 1016,2 hPa 0,0 l/m 1,6 km/h (1 Bft) SW 223 0 min 0,000 mm 0,0 UV-I 0 W/m 7,3 C 7,7 C 3,2 km/h (1 Bft) 96,77 %
20.10.2016 02:44 7,7 C 97 % 1016,2 hPa 0,0 l/m 1,7 km/h (1 Bft) SW 223 0 min 0,000 mm 0,0 UV-I 0 W/m 7,3 C 7,7 C 3,2 km/h (1 Bft) 95,83 %
20.10.2016 02:46 7,7 C 97 % 1016,2 hPa 0,0 l/m 0,0 km/h (0 Bft) SW 223 0 min 0,000 mm 0,0 UV-I 0 W/m 7,3 C 7,7 C 0,0 km/h (0 Bft) 96,88 %
20.10.2016 02:48 7,7 C 97 % 1016,1 hPa 0,0 l/m 0,0 km/h (0 Bft) SW 223 0 min 0,000 mm 0,0 UV-I 0 W/m 7,3 C 7,7 C 0,0 km/h (0 Bft) 97,92 %
20.10.2016 02:50 7,7 C 97 % 1016,2 hPa 0,0 l/m 0,0 km/h (0 Bft) SW 223 0 min 0,000 mm 0,0 UV-I 0 W/m 7,3 C 7,7 C 0,0 km/h (0 Bft) 95,92 %
20.10.2016 02:52 7,7 C 97 % 1016,1 hPa 0,2 l/m 0,0 km/h (0 Bft) SW 223 0 min 0,000 mm 0,0 UV-I 0 W/m 7,3 C 7,7 C 0,0 km/h (0 Bft) 97,92 %
20.10.2016 02:54 7,7 C 97 % 1016,1 hPa 0,0 l/m 0,0 km/h (0 Bft) SW 223 0 min 0,000 mm 0,0 UV-I 0 W/m 7,3 C 7,7 C 0,0 km/h (0 Bft) 98,00 %
20.10.2016 02:56 7,7 C 97 % 1016,2 hPa 0,0 l/m 0,0 km/h (0 Bft) SW 223 0 min 0,000 mm 0,0 UV-I 0 W/m 7,3 C 7,7 C 0,0 km/h (0 Bft) 97,87 %
20.10.2016 02:58 7,7 C 97 % 1016,2 hPa 0,0 l/m 0,0 km/h (0 Bft) SW 223 0 min 0,000 mm 0,0 UV-I 0 W/m 7,3 C 7,7 C 0,0 km/h (0 Bft) 100,00 %
20.10.2016 03:00 7,7 C 97 % 1016,1 hPa 0,2 l/m 0,0 km/h (0 Bft) SW 223 0 min 0,000 mm 0,0 UV-I 0 W/m 7,3 C 7,7 C 0,0 km/h (0 Bft) 97,87 %
20.10.2016 03:02 7,7 C 97 % 1016,1 hPa 0,0 l/m 0,0 km/h (0 Bft) SW 223 0 min 0,000 mm 0,0 UV-I 0 W/m 7,3 C 7,7 C 0,0 km/h (0 Bft) 100,00 %
20.10.2016 03:04 7,6 C 97 % 1016,1 hPa 0,0 l/m 0,0 km/h (0 Bft) SW 223 0 min 0,000 mm 0,0 UV-I 0 W/m 7,2 C 7,6 C 0,0 km/h (0 Bft) 100,00 %
20.10.2016 03:06 7,6 C 97 % 1016,1 hPa 0,0 l/m 0,0 km/h (0 Bft) SW 223 0 min 0,000 mm 0,0 UV-I 0 W/m 7,2 C 7,6 C 0,0 km/h (0 Bft) 100,00 %
20.10.2016 03:08 7,6 C 97 % 1016,1 hPa 0,2 l/m 0,0 km/h (0 Bft) SW 223 0 min 0,000 mm 0,0 UV-I 0 W/m 7,2 C 7,6 C 0,0 km/h (0 Bft) 100,00 %
20.10.2016 03:10 7,6 C 97 % 1015,9 hPa 0,0 l/m 0,0 km/h (0 Bft) SW 223 0 min 0,000 mm 0,0 UV-I 0 W/m 7,2 C 7,6 C 0,0 km/h (0 Bft) 100,00 %
20.10.2016 03:12 7,6 C 97 % 1015,9 hPa 0,0 l/m 0,0 km/h (0 Bft) SW 223 0 min 0,000 mm 0,0 UV-I 0 W/m 7,2 C 7,6 C 0,0 km/h (0 Bft) 100,00 %
20.10.2016 03:14 7,6 C 98 % 1015,9 hPa 0,0 l/m 0,0 km/h (0 Bft) SW 223 0 min 0,000 mm 0,0 UV-I 0 W/m 7,3 C 7,6 C 0,0 km/h (0 Bft) 100,00 %
20.10.2016 03:16 7,6 C 98 % 1015,9 hPa 0,0 l/m 0,0 km/h (0 Bft) SW 223 0 min 0,000 mm 0,0 UV-I 0 W/m 7,3 C 7,6 C 0,0 km/h (0 Bft) 100,00 %
20.10.2016 03:18 7,6 C 98 % 1015,8 hPa 0,2 l/m 0,0 km/h (0 Bft) SW 223 0 min 0,000 mm 0,0 UV-I 0 W/m 7,3 C 7,6 C 0,0 km/h (0 Bft) 100,00 %
20.10.2016 03:20 7,6 C 98 % 1015,9 hPa 0,0 l/m 0,3 km/h (0 Bft) SW 223 0 min 0,000 mm 0,0 UV-I 0 W/m 7,3 C 7,6 C 1,6 km/h (1 Bft) 100,00 %
20.10.2016 03:22 7,6 C 98 % 1015,9 hPa 0,0 l/m 0,0 km/h (0 Bft) SW 223 0 min 0,000 mm 0,0 UV-I 0 W/m 7,3 C 7,6 C 0,0 km/h (0 Bft) 95,74 %
20.10.2016 03:24 7,6 C 98 % 1015,9 hPa 0,0 l/m 0,0 km/h (0 Bft) SW 223 0 min 0,000 mm 0,0 UV-I 0 W/m 7,3 C 7,6 C 0,0 km/h (0 Bft) 100,00 %
20.10.2016 03:26 7,6 C 98 % 1015,9 hPa 0,0 l/m 0,0 km/h (0 Bft) SW 223 0 min 0,000 mm 0,0 UV-I 0 W/m 7,3 C 7,6 C 1,6 km/h (1 Bft) 100,00 %
20.10.2016 03:28 7,6 C 98 % 1015,9 hPa 0,0 l/m 0,3 km/h (0 Bft) SW 223 0 min 0,000 mm 0,0 UV-I 0 W/m 7,3 C 7,6 C 1,6 km/h (1 Bft) 100,00 %
20.10.2016 03:30 7,7 C 98 % 1015,9 hPa 0,0 l/m 1,1 km/h (1 Bft) SW 223 0 min 0,000 mm 0,0 UV-I 0 W/m 7,4 C 7,7 C 1,6 km/h (1 Bft) 100,00 %
20.10.2016 03:32 7,6 C 98 % 1015,8 hPa 0,0 l/m 0,6 km/h (0 Bft) SW 223 0 min 0,000 mm 0,0 UV-I 0 W/m 7,3 C 7,6 C 1,6 km/h (1 Bft) 98,00 %
20.10.2016 03:34 7,6 C 98 % 1015,8 hPa 0,0 l/m 0,3 km/h (0 Bft) SW 223 0 min 0,000 mm 0,0 UV-I 0 W/m 7,3 C 7,6 C 1,6 km/h (1 Bft) 100,00 %
20.10.2016 03:36 7,6 C 98 % 1015,8 hPa 0,0 l/m 0,7 km/h (0 Bft) SW 223 0 min 0,000 mm 0,0 UV-I 0 W/m 7,3 C 7,6 C 1,6 km/h (1 Bft) 97,37 %
20.10.2016 03:38 7,6 C 98 % 1015,8 hPa 0,0 l/m 0,1 km/h (0 Bft) SW 223 0 min 0,000 mm 0,0 UV-I 0 W/m 7,3 C 7,6 C 1,6 km/h (1 Bft) 100,00 %
20.10.2016 03:40 7,6 C 98 % 1015,7 hPa 0,0 l/m 0,0 km/h (0 Bft) SW 223 0 min 0,000 mm 0,0 UV-I 0 W/m 7,3 C 7,6 C 0,0 km/h (0 Bft) 100,00 %
20.10.2016 03:42 7,6 C 98 % 1015,6 hPa 0,0 l/m 0,1 km/h (0 Bft) SW 223 0 min 0,000 mm 0,0 UV-I 0 W/m 7,3 C 7,6 C 1,6 km/h (1 Bft) 98,11 %
20.10.2016 03:44 7,5 C 97 % 1015,5 hPa 0,2 l/m 0,6 km/h (0 Bft) SW 223 0 min 0,000 mm 0,0 UV-I 0 W/m 7,1 C 7,5 C 1,6 km/h (1 Bft) 100,00 %
20.10.2016 03:46 7,5 C 97 % 1015,5 hPa 0,0 l/m 1,0 km/h (0 Bft) SW 223 0 min 0,000 mm 0,0 UV-I 0 W/m 7,1 C 7,5 C 1,6 km/h (1 Bft) 100,00 %
20.10.2016 03:48 7,5 C 98 % 1015,5 hPa 0,0 l/m 1,3 km/h (1 Bft) SW 223 0 min 0,000 mm 0,0 UV-I 0 W/m 7,2 C 7,5 C 3,2 km/h (1 Bft) 100,00 %
20.10.2016 03:50 7,5 C 98 % 1015,5 hPa 0,0 l/m 0,6 km/h (0 Bft) SW 223 0 min 0,000 mm 0,0 UV-I 0 W/m 7,2 C 7,5 C 1,6 km/h (1 Bft) 100,00 %
20.10.2016 03:52 7,5 C 98 % 1015,6 hPa 0,0 l/m 0,8 km/h (0 Bft) SW 223 0 min 0,000 mm 0,0 UV-I 0 W/m 7,2 C 7,5 C 1,6 km/h (1 Bft) 100,00 %
20.10.2016 03:54 7,5 C 98 % 1015,6 hPa 0,0 l/m 0,5 km/h (0 Bft) SW 223 0 min 0,000 mm 0,0 UV-I 0 W/m 7,2 C 7,5 C 1,6 km/h (1 Bft) 97,56 %
20.10.2016 03:56 7,5 C 98 % 1015,6 hPa 0,0 l/m 1,0 km/h (0 Bft) SW 223 0 min 0,000 mm 0,0 UV-I 0 W/m 7,2 C 7,5 C 3,2 km/h (1 Bft) 100,00 %
20.10.2016 03:58 7,5 C 98 % 1015,5 hPa 0,0 l/m 0,1 km/h (0 Bft) SW 223 0 min 0,000 mm 0,0 UV-I 0 W/m 7,2 C 7,5 C 1,6 km/h (1 Bft) 100,00 %
20.10.2016 04:00 7,5 C 98 % 1015,6 hPa 0,0 l/m 0,0 km/h (0 Bft) SW 223 0 min 0,000 mm 0,0 UV-I 0 W/m 7,2 C 7,5 C 0,0 km/h (0 Bft) 100,00 %
20.10.2016 04:05 7,5 C 98 % 1015,6 hPa 0,0 l/m 0,4 km/h (0 Bft) SW 223 0 min 0,000 mm 0,0 UV-I 0 W/m 7,2 C 7,5 C 1,6 km/h (1 Bft) 100,00 %
20.10.2016 04:06 7,5 C 98 % 1015,6 hPa 0,0 l/m 0,8 km/h (0 Bft) SW 223 0 min 0,000 mm 0,0 UV-I 0 W/m 7,2 C 7,5 C 1,6 km/h (1 Bft) 100,00 %
20.10.2016 04:08 7,5 C 98 % 1015,6 hPa 0,0 l/m 1,0 km/h (0 Bft) SW 223 0 min 0,000 mm 0,0 UV-I 0 W/m 7,2 C 7,5 C 3,2 km/h (1 Bft) 97,62 %
20.10.2016 04:10 7,6 C 98 % 1015,6 hPa 0,0 l/m 1,4 km/h (1 Bft) SW 223 0 min 0,000 mm 0,0 UV-I 0 W/m 7,3 C 7,6 C 3,2 km/h (1 Bft) 100,00 %
20.10.2016 04:12 7,5 C 98 % 1015,5 hPa 0,2 l/m 0,7 km/h (0 Bft) SW 223 0 min 0,000 mm 0,0 UV-I 0 W/m 7,2 C 7,5 C 1,6 km/h (1 Bft) 100,00 %
20.10.2016 04:14 7,5 C 98 % 1015,5 hPa 0,0 l/m 0,7 km/h (0 Bft) SW 223 0 min 0,000 mm 0,0 UV-I 0 W/m 7,2 C 7,5 C 1,6 km/h (1 Bft) 100,00 %
20.10.2016 04:16 7,5 C 98 % 1015,5 hPa 0,0 l/m 2,5 km/h (1 Bft) SW 223 0 min 0,000 mm 0,0 UV-I 0 W/m 7,2 C 7,5 C 3,2 km/h (1 Bft) 97,37 %
20.10.2016 04:18 7,5 C 98 % 1015,5 hPa 0,0 l/m 1,9 km/h (1 Bft) SW 223 0 min 0,000 mm 0,0 UV-I 0 W/m 7,2 C 7,5 C 3,2 km/h (1 Bft) 100,00 %
20.10.2016 04:20 7,5 C 98 % 1015,5 hPa 0,0 l/m 1,0 km/h (0 Bft) SW 223 0 min 0,000 mm 0,0 UV-I 0 W/m 7,2 C 7,5 C 3,2 km/h (1 Bft) 100,00 %
20.10.2016 04:22 7,5 C 98 % 1015,5 hPa 0,0 l/m 0,2 km/h (0 Bft) SW 223 0 min 0,000 mm 0,0 UV-I 0 W/m 7,2 C 7,5 C 1,6 km/h (1 Bft) 98,00 %
20.10.2016 04:24 7,5 C 98 % 1015,4 hPa 0,0 l/m 0,2 km/h (0 Bft) SW 223 0 min 0,000 mm 0,0 UV-I 0 W/m 7,2 C 7,5 C 1,6 km/h (1 Bft) 98,00 %
20.10.2016 04:26 7,5 C 98 % 1015,5 hPa 0,0 l/m 0,2 km/h (0 Bft) SW 223 0 min 0,000 mm 0,0 UV-I 0 W/m 7,2 C 7,5 C 1,6 km/h (1 Bft) 93,62 %
20.10.2016 04:28 7,5 C 98 % 1015,5 hPa 0,0 l/m 0,0 km/h (0 Bft) SW 223 0 min 0,000 mm 0,0 UV-I 0 W/m 7,2 C 7,5 C 0,0 km/h (0 Bft) 97,14 %
20.10.2016 04:30 7,5 C 98 % 1015,4 hPa 0,0 l/m 0,0 km/h (0 Bft) SW 223 0 min 0,000 mm 0,0 UV-I 0 W/m 7,2 C 7,5 C 0,0 km/h (0 Bft) 93,55 %
20.10.2016 04:32 7,5 C 98 % 1015,4 hPa 0,0 l/m 0,0 km/h (0 Bft) SW 223 0 min 0,000 mm 0,0 UV-I 0 W/m 7,2 C 7,5 C 0,0 km/h (0 Bft) 94,29 %
20.10.2016 04:34 7,5 C 98 % 1015,4 hPa 0,0 l/m 0,0 km/h (0 Bft) SW 223 0 min 0,000 mm 0,0 UV-I 0 W/m 7,2 C 7,5 C 0,0 km/h (0 Bft) 95,74 %
20.10.2016 04:36 7,6 C 98 % 1015,3 hPa 0,0 l/m 0,0 km/h (0 Bft) SW 223 0 min 0,000 mm 0,0 UV-I 0 W/m 7,3 C 7,6 C 0,0 km/h (0 Bft) 96,00 %
20.10.2016 04:38 7,5 C 98 % 1015,3 hPa 0,0 l/m 0,0 km/h (0 Bft) SW 223 0 min 0,000 mm 0,0 UV-I 0 W/m 7,2 C 7,5 C 0,0 km/h (0 Bft) 97,87 %
20.10.2016 04:40 7,5 C 98 % 1015,3 hPa 0,0 l/m 0,0 km/h (0 Bft) SW 223 0 min 0,000 mm 0,0 UV-I 0 W/m 7,2 C 7,5 C 0,0 km/h (0 Bft) 96,00 %
20.10.2016 04:42 7,5 C 98 % 1015,3 hPa 0,0 l/m 0,0 km/h (0 Bft) SW 223 0 min 0,000 mm 0,0 UV-I 0 W/m 7,2 C 7,5 C 0,0 km/h (0 Bft) 94,74 %
20.10.2016 04:44 7,5 C 98 % 1015,3 hPa 0,0 l/m 0,0 km/h (0 Bft) SW 223 0 min 0,000 mm 0,0 UV-I 0 W/m 7,2 C 7,5 C 0,0 km/h (0 Bft) 98,00 %
20.10.2016 04:46 7,5 C 98 % 1015,3 hPa 0,0 l/m 0,0 km/h (0 Bft) SW 223 0 min 0,000 mm 0,0 UV-I 0 W/m 7,2 C 7,5 C 0,0 km/h (0 Bft) 97,92 %
20.10.2016 04:48 7,5 C 98 % 1015,4 hPa 0,0 l/m 0,0 km/h (0 Bft) SW 223 0 min 0,000 mm 0,0 UV-I 0 W/m 7,2 C 7,5 C 0,0 km/h (0 Bft) 95,74 %
20.10.2016 04:50 7,5 C 98 % 1015,3 hPa 0,0 l/m 0,0 km/h (0 Bft) SW 223 0 min 0,000 mm 0,0 UV-I 0 W/m 7,2 C 7,5 C 0,0 km/h (0 Bft) 95,83 %
20.10.2016 04:52 7,4 C 98 % 1015,2 hPa 0,0 l/m 0,0 km/h (0 Bft) SW 223 0 min 0,000 mm 0,0 UV-I 0 W/m 7,1 C 7,4 C 0,0 km/h (0 Bft) 98,00 %
20.10.2016 04:54 7,4 C 98 % 1015,2 hPa 0,0 l/m 0,0 km/h (0 Bft) SW 223 0 min 0,000 mm 0,0 UV-I 0 W/m 7,1 C 7,4 C 0,0 km/h (0 Bft) 98,00 %
20.10.2016 04:56 7,4 C 98 % 1015,1 hPa 0,0 l/m 0,0 km/h (0 Bft) SW 223 0 min 0,000 mm 0,0 UV-I 0 W/m 7,1 C 7,4 C 0,0 km/h (0 Bft) 97,56 %
20.10.2016 04:58 7,5 C 98 % 1015,2 hPa 0,0 l/m 0,0 km/h (0 Bft) SW 223 0 min 0,000 mm 0,0 UV-I 0 W/m 7,2 C 7,5 C 0,0 km/h (0 Bft) 100,00 %
20.10.2016 05:00 7,5 C 98 % 1015,1 hPa 0,0 l/m 0,0 km/h (0 Bft) SW 223 0 min 0,000 mm 0,0 UV-I 0 W/m 7,2 C 7,5 C 1,6 km/h (1 Bft) 100,00 %
20.10.2016 05:02 7,4 C 98 % 1015,1 hPa 0,0 l/m 0,9 km/h (0 Bft) SW 223 0 min 0,000 mm 0,0 UV-I 0 W/m 7,1 C 7,4 C 1,6 km/h (1 Bft) 100,00 %
20.10.2016 05:04 7,4 C 98 % 1015,1 hPa 0,0 l/m 0,4 km/h (0 Bft) SW 223 0 min 0,000 mm 0,0 UV-I 0 W/m 7,1 C 7,4 C 1,6 km/h (1 Bft) 97,56 %
20.10.2016 05:06 7,4 C 98 % 1015,2 hPa 0,0 l/m 0,7 km/h (0 Bft) SW 223 0 min 0,000 mm 0,0 UV-I 0 W/m 7,1 C 7,4 C 3,2 km/h (1 Bft) 98,00 %
20.10.2016 05:08 7,4 C 98 % 1015,2 hPa 0,0 l/m 0,9 km/h (0 Bft) SW 223 0 min 0,000 mm 0,0 UV-I 0 W/m 7,1 C 7,4 C 3,2 km/h (1 Bft) 100,00 %
20.10.2016 05:10 7,5 C 98 % 1015,2 hPa 0,0 l/m 0,8 km/h (0 Bft) SW 223 0 min 0,000 mm 0,0 UV-I 0 W/m 7,2 C 7,5 C 1,6 km/h (1 Bft) 100,00 %
20.10.2016 05:12 7,4 C 98 % 1015,2 hPa 0,0 l/m 1,2 km/h (1 Bft) SW 223 0 min 0,000 mm 0,0 UV-I 0 W/m 7,1 C 7,4 C 3,2 km/h (1 Bft) 100,00 %
20.10.2016 05:14 7,4 C 98 % 1015,1 hPa 0,2 l/m 0,3 km/h (0 Bft) SW 223 0 min 0,000 mm 0,0 UV-I 0 W/m 7,1 C 7,4 C 1,6 km/h (1 Bft) 100,00 %
20.10.2016 05:16 7,4 C 98 % 1015,1 hPa 0,0 l/m 0,4 km/h (0 Bft) SW 223 0 min 0,000 mm 0,0 UV-I 0 W/m 7,1 C 7,4 C 1,6 km/h (1 Bft) 100,00 %
20.10.2016 05:18 7,4 C 98 % 1015,2 hPa 0,0 l/m 2,3 km/h (1 Bft) SW 223 0 min 0,000 mm 0,0 UV-I 0 W/m 7,1 C 7,4 C 4,8 km/h (1 Bft) 100,00 %
20.10.2016 05:20 7,4 C 98 % 1015,1 hPa 0,0 l/m 0,9 km/h (0 Bft) SW 223 0 min 0,000 mm 0,0 UV-I 0 W/m 7,1 C 7,4 C 1,6 km/h (1 Bft) 98,00 %
20.10.2016 05:22 7,4 C 98 % 1015,1 hPa 0,0 l/m 0,7 km/h (0 Bft) SW 223 0 min 0,000 mm 0,0 UV-I 0 W/m 7,1 C 7,4 C 1,6 km/h (1 Bft) 100,00 %
20.10.2016 05:24 7,4 C 98 % 1015,1 hPa 0,0 l/m 0,9 km/h (0 Bft) SW 223 0 min 0,000 mm 0,0 UV-I 0 W/m 7,1 C 7,4 C 3,2 km/h (1 Bft) 100,00 %
20.10.2016 05:26 7,4 C 98 % 1015,2 hPa 0,0 l/m 1,9 km/h (1 Bft) S-SW 203 0 min 0,000 mm 0,0 UV-I 0 W/m 7,1 C 7,4 C 3,2 km/h (1 Bft) 100,00 %
20.10.2016 05:28 7,4 C 98 % 1015,2 hPa 0,0 l/m 1,5 km/h (1 Bft) S 180 0 min 0,000 mm 0,0 UV-I 0 W/m 7,1 C 7,4 C 3,2 km/h (1 Bft) 100,00 %
20.10.2016 05:30 7,3 C 98 % 1015,2 hPa 0,0 l/m 1,9 km/h (1 Bft) S 179 0 min 0,000 mm 0,0 UV-I 0 W/m 7,0 C 7,3 C 3,2 km/h (1 Bft) 100,00 %
20.10.2016 05:32 7,3 C 98 % 1015,2 hPa 0,0 l/m 1,1 km/h (1 Bft) S 179 0 min 0,000 mm 0,0 UV-I 0 W/m 7,0 C 7,3 C 3,2 km/h (1 Bft) 100,00 %
20.10.2016 05:34 7,3 C 98 % 1015,2 hPa 0,0 l/m 1,8 km/h (1 Bft) S 179 0 min 0,000 mm 0,0 UV-I 0 W/m 7,0 C 7,3 C 4,8 km/h (1 Bft) 97,87 %
20.10.2016 05:36 7,3 C 98 % 1015,2 hPa 0,0 l/m 0,9 km/h (0 Bft) S 179 0 min 0,000 mm 0,0 UV-I 0 W/m 7,0 C 7,3 C 3,2 km/h (1 Bft) 100,00 %
20.10.2016 05:38 7,4 C 98 % 1015,2 hPa 0,0 l/m 3,2 km/h (1 Bft) S 181 0 min 0,000 mm 0,0 UV-I 0 W/m 7,1 C 7,4 C 4,8 km/h (1 Bft) 100,00 %
20.10.2016 05:40 7,4 C 98 % 1015,2 hPa 0,0 l/m 2,5 km/h (1 Bft) S 181 0 min 0,000 mm 0,0 UV-I 0 W/m 7,1 C 7,4 C 3,2 km/h (1 Bft) 100,00 %
20.10.2016 05:42 7,3 C 98 % 1015,2 hPa 0,0 l/m 2,3 km/h (1 Bft) S 181 0 min 0,000 mm 0,0 UV-I 0 W/m 7,0 C 7,3 C 3,2 km/h (1 Bft) 100,00 %
20.10.2016 05:44 7,3 C 98 % 1015,1 hPa 0,0 l/m 0,4 km/h (0 Bft) S 181 0 min 0,000 mm 0,0 UV-I 0 W/m 7,0 C 7,3 C 1,6 km/h (1 Bft) 100,00 %
20.10.2016 05:46 7,3 C 98 % 1015,2 hPa 0,0 l/m 1,4 km/h (1 Bft) S 181 0 min 0,000 mm 0,0 UV-I 0 W/m 7,0 C 7,3 C 3,2 km/h (1 Bft) 97,87 %
20.10.2016 05:48 7,3 C 98 % 1015,2 hPa 0,0 l/m 2,0 km/h (1 Bft) S 181 0 min 0,000 mm 0,0 UV-I 0 W/m 7,0 C 7,3 C 3,2 km/h (1 Bft) 100,00 %
20.10.2016 05:50 7,3 C 98 % 1015,2 hPa 0,0 l/m 1,4 km/h (1 Bft) S 181 0 min 0,000 mm 0,0 UV-I 0 W/m 7,0 C 7,3 C 3,2 km/h (1 Bft) 97,56 %
20.10.2016 05:52 7,3 C 98 % 1015,2 hPa 0,0 l/m 0,3 km/h (0 Bft) S 181 0 min 0,000 mm 0,0 UV-I 0 W/m 7,0 C 7,3 C 1,6 km/h (1 Bft) 100,00 %
20.10.2016 05:54 7,3 C 97 % 1015,2 hPa 0,0 l/m 0,0 km/h (0 Bft) S 181 0 min 0,000 mm 0,0 UV-I 0 W/m 6,9 C 7,3 C 0,0 km/h (0 Bft) 100,00 %
20.10.2016 05:56 7,3 C 97 % 1015,2 hPa 0,0 l/m 0,1 km/h (0 Bft) S 181 0 min 0,000 mm 0,0 UV-I 0 W/m 6,9 C 7,3 C 1,6 km/h (1 Bft) 100,00 %
20.10.2016 05:58 7,3 C 97 % 1015,2 hPa 0,0 l/m 0,7 km/h (0 Bft) S 181 0 min 0,000 mm 0,0 UV-I 0 W/m 6,9 C 7,3 C 1,6 km/h (1 Bft) 100,00 %
20.10.2016 06:00 7,3 C 97 % 1015,2 hPa 0,0 l/m 0,1 km/h (0 Bft) S 181 0 min 0,000 mm 0,0 UV-I 0 W/m 6,9 C 7,3 C 1,6 km/h (1 Bft) 95,74 %
20.10.2016 06:02 7,3 C 97 % 1015,2 hPa 0,0 l/m 0,6 km/h (0 Bft) S 181 0 min 0,000 mm 0,0 UV-I 0 W/m 6,9 C 7,3 C 1,6 km/h (1 Bft) 100,00 %
20.10.2016 06:04 7,3 C 97 % 1015,1 hPa 0,0 l/m 0,0 km/h (0 Bft) S 181 0 min 0,000 mm 0,0 UV-I 0 W/m 6,9 C 7,3 C 0,0 km/h (0 Bft) 100,00 %
20.10.2016 06:06 7,2 C 97 % 1015,1 hPa 0,0 l/m 0,0 km/h (0 Bft) S 181 0 min 0,000 mm 0,0 UV-I 0 W/m 6,8 C 7,2 C 0,0 km/h (0 Bft) 98,00 %
20.10.2016 06:08 7,2 C 97 % 1015,2 hPa 0,0 l/m 0,0 km/h (0 Bft) S 181 0 min 0,000 mm 0,0 UV-I 0 W/m 6,8 C 7,2 C 0,0 km/h (0 Bft) 100,00 %
20.10.2016 06:10 7,2 C 97 % 1015,2 hPa 0,0 l/m 0,0 km/h (0 Bft) S 181 0 min 0,000 mm 0,0 UV-I 0 W/m 6,8 C 7,2 C 1,6 km/h (1 Bft) 100,00 %
20.10.2016 06:12 7,2 C 97 % 1015,2 hPa 0,0 l/m 0,5 km/h (0 Bft) S 181 0 min 0,000 mm 0,0 UV-I 0 W/m 6,8 C 7,2 C 1,6 km/h (1 Bft) 97,92 %
20.10.2016 06:14 7,2 C 97 % 1015,2 hPa 0,0 l/m 0,4 km/h (0 Bft) S 181 0 min 0,000 mm 0,0 UV-I 0 W/m 6,8 C 7,2 C 1,6 km/h (1 Bft) 100,00 %
20.10.2016 06:16 7,2 C 97 % 1015,2 hPa 0,0 l/m 0,2 km/h (0 Bft) S 181 0 min 0,000 mm 0,0 UV-I 0 W/m 6,8 C 7,2 C 1,6 km/h (1 Bft) 97,87 %
20.10.2016 06:18 7,2 C 97 % 1015,2 hPa 0,0 l/m 0,1 km/h (0 Bft) S 181 0 min 0,000 mm 0,0 UV-I 0 W/m 6,8 C 7,2 C 1,6 km/h (1 Bft) 100,00 %
20.10.2016 06:20 7,2 C 97 % 1015,2 hPa 0,0 l/m 0,2 km/h (0 Bft) S 181 0 min 0,000 mm 0,0 UV-I 0 W/m 6,8 C 7,2 C 1,6 km/h (1 Bft) 100,00 %
20.10.2016 06:22 7,2 C 97 % 1015,2 hPa 0,0 l/m 0,1 km/h (0 Bft) S 181 0 min 0,000 mm 0,0 UV-I 0 W/m 6,8 C 7,2 C 1,6 km/h (1 Bft) 97,87 %
20.10.2016 06:24 7,2 C 97 % 1015,2 hPa 0,0 l/m 0,1 km/h (0 Bft) S 181 0 min 0,000 mm 0,0 UV-I 0 W/m 6,8 C 7,2 C 1,6 km/h (1 Bft) 97,56 %
20.10.2016 06:26 7,2 C 97 % 1015,1 hPa 0,0 l/m 0,3 km/h (0 Bft) S 181 0 min 0,000 mm 0,0 UV-I 0 W/m 6,8 C 7,2 C 1,6 km/h (1 Bft) 98,00 %
20.10.2016 06:28 7,2 C 97 % 1015,2 hPa 0,0 l/m 0,8 km/h (0 Bft) S 181 0 min 0,000 mm 0,0 UV-I 0 W/m 6,8 C 7,2 C 3,2 km/h (1 Bft) 96,00 %
20.10.2016 06:30 7,2 C 97 % 1015,2 hPa 0,0 l/m 0,5 km/h (0 Bft) S 181 0 min 0,000 mm 0,0 UV-I 0 W/m 6,8 C 7,2 C 3,2 km/h (1 Bft) 100,00 %
20.10.2016 06:32 7,2 C 97 % 1015,3 hPa 0,0 l/m 0,9 km/h (0 Bft) S 181 0 min 0,000 mm 0,0 UV-I 0 W/m 6,8 C 7,2 C 3,2 km/h (1 Bft) 93,62 %
20.10.2016 06:34 7,2 C 97 % 1015,2 hPa 0,0 l/m 1,5 km/h (1 Bft) S 181 0 min 0,000 mm 0,0 UV-I 0 W/m 6,8 C 7,2 C 3,2 km/h (1 Bft) 98,00 %
20.10.2016 06:36 7,2 C 97 % 1015,2 hPa 0,0 l/m 2,0 km/h (1 Bft) S 180 0 min 0,000 mm 0,0 UV-I 0 W/m 6,8 C 7,2 C 4,8 km/h (1 Bft) 98,00 %
20.10.2016 06:38 7,2 C 97 % 1015,1 hPa 0,0 l/m 2,3 km/h (1 Bft) S 174 0 min 0,000 mm 0,0 UV-I 0 W/m 6,8 C 7,2 C 6,4 km/h (2 Bft) 97,92 %
20.10.2016 06:40 7,2 C 97 % 1015,2 hPa 0,0 l/m 2,5 km/h (1 Bft) S 173 0 min 0,000 mm 0,0 UV-I 0 W/m 6,8 C 7,2 C 4,8 km/h (1 Bft) 97,37 %
20.10.2016 06:42 7,2 C 97 % 1015,2 hPa 0,0 l/m 3,1 km/h (1 Bft) S-SO 165 0 min 0,000 mm 0,0 UV-I 0 W/m 6,8 C 7,2 C 8,0 km/h (2 Bft) 97,87 %
20.10.2016 06:44 7,3 C 97 % 1015,2 hPa 0,0 l/m 2,8 km/h (1 Bft) S-SO 163 0 min 0,000 mm 0,0 UV-I 0 W/m 6,9 C 7,3 C 6,4 km/h (2 Bft) 97,87 %
20.10.2016 06:46 7,3 C 97 % 1015,2 hPa 0,0 l/m 1,9 km/h (1 Bft) S-SO 163 0 min 0,000 mm 0,0 UV-I 0 W/m 6,9 C 7,3 C 3,2 km/h (1 Bft) 95,83 %
20.10.2016 06:48 7,3 C 97 % 1015,2 hPa 0,0 l/m 2,3 km/h (1 Bft) S-SO 163 0 min 0,000 mm 0,0 UV-I 0 W/m 6,9 C 7,3 C 6,4 km/h (2 Bft) 95,74 %
20.10.2016 06:50 7,3 C 97 % 1015,2 hPa 0,0 l/m 1,5 km/h (1 Bft) S-SO 163 0 min 0,000 mm 0,0 UV-I 0 W/m 6,9 C 7,3 C 3,2 km/h (1 Bft) 96,36 %
20.10.2016 06:52 7,3 C 97 % 1015,1 hPa 0,0 l/m 0,6 km/h (0 Bft) S-SO 163 0 min 0,000 mm 0,0 UV-I 0 W/m 6,9 C 7,3 C 3,2 km/h (1 Bft) 97,62 %
20.10.2016 06:54 7,3 C 97 % 1015,1 hPa 0,0 l/m 0,6 km/h (0 Bft) S-SO 163 0 min 0,000 mm 0,0 UV-I 0 W/m 6,9 C 7,3 C 1,6 km/h (1 Bft) 98,00 %
20.10.2016 06:56 7,3 C 97 % 1015,1 hPa 0,0 l/m 1,0 km/h (0 Bft) S-SO 163 0 min 0,000 mm 0,0 UV-I 0 W/m 6,9 C 7,3 C 3,2 km/h (1 Bft) 100,00 %
20.10.2016 06:58 7,3 C 97 % 1015,1 hPa 0,0 l/m 1,0 km/h (0 Bft) S-SO 163 0 min 0,000 mm 0,0 UV-I 0 W/m 6,9 C 7,3 C 3,2 km/h (1 Bft) 97,56 %
20.10.2016 07:00 7,3 C 97 % 1015,2 hPa 0,0 l/m 0,4 km/h (0 Bft) S-SO 163 0 min 0,000 mm 0,0 UV-I 0 W/m 6,9 C 7,3 C 1,6 km/h (1 Bft) 100,00 %
20.10.2016 07:02 7,3 C 97 % 1015,3 hPa 0,0 l/m 1,1 km/h (1 Bft) S-SO 163 0 min 0,000 mm 0,0 UV-I 0 W/m 6,9 C 7,3 C 3,2 km/h (1 Bft) 97,87 %
20.10.2016 07:04 7,3 C 97 % 1015,3 hPa 0,0 l/m 2,7 km/h (1 Bft) S-SO 163 0 min 0,000 mm 0,0 UV-I 0 W/m 6,9 C 7,3 C 6,4 km/h (2 Bft) 100,00 %
20.10.2016 07:06 7,4 C 97 % 1015,3 hPa 0,0 l/m 2,9 km/h (1 Bft) S-SO 165 0 min 0,000 mm 0,0 UV-I 0 W/m 7,0 C 7,4 C 8,0 km/h (2 Bft) 100,00 %
20.10.2016 07:08 7,3 C 97 % 1015,3 hPa 0,0 l/m 1,5 km/h (1 Bft) S-SO 163 0 min 0,000 mm 0,0 UV-I 0 W/m 6,9 C 7,3 C 3,2 km/h (1 Bft) 100,00 %
20.10.2016 07:10 7,3 C 97 % 1015,2 hPa 0,0 l/m 2,3 km/h (1 Bft) S-SO 163 0 min 0,000 mm 0,0 UV-I 0 W/m 6,9 C 7,3 C 6,4 km/h (2 Bft) 100,00 %
20.10.2016 07:12 7,3 C 97 % 1015,3 hPa 0,0 l/m 1,9 km/h (1 Bft) S-SO 163 0 min 0,000 mm 0,0 UV-I 0 W/m 6,9 C 7,3 C 3,2 km/h (1 Bft) 97,87 %
20.10.2016 07:14 7,3 C 97 % 1015,3 hPa 0,0 l/m 4,1 km/h (1 Bft) S-SO 167 0 min 0,000 mm 0,0 UV-I 0 W/m 6,9 C 7,3 C 8,0 km/h (2 Bft) 100,00 %
20.10.2016 07:16 7,3 C 97 % 1015,3 hPa 0,0 l/m 3,3 km/h (1 Bft) S-SO 168 0 min 0,000 mm 0,0 UV-I 0 W/m 6,9 C 7,3 C 6,4 km/h (2 Bft) 100,00 %
20.10.2016 07:18 7,4 C 97 % 1015,3 hPa 0,0 l/m 2,8 km/h (1 Bft) S-SO 168 0 min 0,000 mm 0,0 UV-I 0 W/m 7,0 C 7,4 C 6,4 km/h (2 Bft) 100,00 %
20.10.2016 07:20 7,4 C 97 % 1015,2 hPa 0,0 l/m 1,9 km/h (1 Bft) S-SO 168 0 min 0,000 mm 0,0 UV-I 0 W/m 7,0 C 7,4 C 3,2 km/h (1 Bft) 97,37 %
20.10.2016 07:22 7,4 C 97 % 1015,2 hPa 0,0 l/m 1,6 km/h (1 Bft) S-SO 168 0 min 0,000 mm 0,0 UV-I 0 W/m 7,0 C 7,4 C 3,2 km/h (1 Bft) 100,00 %
20.10.2016 07:24 7,3 C 97 % 1015,2 hPa 0,0 l/m 0,5 km/h (0 Bft) S-SO 168 0 min 0,000 mm 0,0 UV-I 0 W/m 6,9 C 7,3 C 1,6 km/h (1 Bft) 98,00 %
20.10.2016 07:26 7,3 C 97 % 1015,1 hPa 0,0 l/m 0,4 km/h (0 Bft) S-SO 168 0 min 0,000 mm 0,0 UV-I 0 W/m 6,9 C 7,3 C 1,6 km/h (1 Bft) 97,87 %
20.10.2016 07:28 7,3 C 97 % 1015,2 hPa 0,0 l/m 1,1 km/h (1 Bft) S-SO 168 0 min 0,000 mm 0,0 UV-I 0 W/m 6,9 C 7,3 C 3,2 km/h (1 Bft) 100,00 %
20.10.2016 07:30 7,3 C 97 % 1015,2 hPa 0,0 l/m 3,1 km/h (1 Bft) S-SW 204 0 min 0,000 mm 0,0 UV-I 0 W/m 6,9 C 7,3 C 6,4 km/h (2 Bft) 98,00 %
20.10.2016 07:32 7,3 C 97 % 1015,2 hPa 0,0 l/m 3,5 km/h (1 Bft) S-SW 204 0 min 0,000 mm 0,0 UV-I 0 W/m 6,9 C 7,3 C 6,4 km/h (2 Bft) 97,87 %
20.10.2016 07:34 7,3 C 97 % 1015,2 hPa 0,0 l/m 3,7 km/h (1 Bft) S 190 0 min 0,000 mm 0,0 UV-I 0 W/m 6,9 C 7,3 C 6,4 km/h (2 Bft) 100,00 %
20.10.2016 07:36 7,3 C 97 % 1015,3 hPa 0,0 l/m 3,4 km/h (1 Bft) S-SW 194 0 min 0,000 mm 0,0 UV-I 0 W/m 6,9 C 7,3 C 4,8 km/h (1 Bft) 100,00 %
20.10.2016 07:38 7,3 C 97 % 1015,3 hPa 0,0 l/m 2,5 km/h (1 Bft) S 173 0 min 0,000 mm 0,0 UV-I 0 W/m 6,9 C 7,3 C 4,8 km/h (1 Bft) 98,00 %
20.10.2016 07:40 7,3 C 97 % 1015,4 hPa 0,0 l/m 3,0 km/h (1 Bft) S 173 0 min 0,000 mm 0,0 UV-I 0 W/m 6,9 C 7,3 C 4,8 km/h (1 Bft) 100,00 %
20.10.2016 07:42 7,3 C 96 % 1015,4 hPa 0,0 l/m 3,6 km/h (1 Bft) S-SW 194 0 min 0,000 mm 0,0 UV-I 0 W/m 6,7 C 7,3 C 6,4 km/h (2 Bft) 100,00 %
20.10.2016 07:44 7,3 C 96 % 1015,4 hPa 0,0 l/m 2,7 km/h (1 Bft) S 169 0 min 0,000 mm 0,0 UV-I 0 W/m 6,7 C 7,3 C 6,4 km/h (2 Bft) 98,00 %
20.10.2016 07:46 7,2 C 96 % 1015,4 hPa 0,0 l/m 2,9 km/h (1 Bft) S 190 0 min 0,000 mm 0,0 UV-I 0 W/m 6,6 C 7,2 C 6,4 km/h (2 Bft) 97,87 %
20.10.2016 07:48 7,2 C 96 % 1015,4 hPa 0,0 l/m 2,1 km/h (1 Bft) S-SO 167 0 min 0,000 mm 0,0 UV-I 0 W/m 6,6 C 7,2 C 4,8 km/h (1 Bft) 100,00 %
20.10.2016 07:50 7,2 C 96 % 1015,4 hPa 0,0 l/m 3,9 km/h (1 Bft) S-SO 164 0 min 0,000 mm 0,0 UV-I 0 W/m 6,6 C 7,2 C 6,4 km/h (2 Bft) 98,00 %
20.10.2016 07:52 7,2 C 96 % 1015,5 hPa 0,0 l/m 5,7 km/h (1 Bft) S 172 0 min 0,000 mm 0,0 UV-I 0 W/m 6,6 C 7,2 C 11,3 km/h (2 Bft) 98,21 %
20.10.2016 07:54 7,2 C 96 % 1015,5 hPa 0,0 l/m 4,8 km/h (1 Bft) S 171 0 min 0,000 mm 0,0 UV-I 0 W/m 6,6 C 7,2 C 9,7 km/h (2 Bft) 100,00 %
20.10.2016 07:56 7,2 C 96 % 1015,4 hPa 0,0 l/m 5,4 km/h (1 Bft) S 188 0 min 0,000 mm 0,0 UV-I 2 W/m 6,6 C 7,2 C 9,7 km/h (2 Bft) 97,37 %
20.10.2016 07:58 7,2 C 96 % 1015,4 hPa 0,0 l/m 3,0 km/h (1 Bft) S 183 0 min 0,000 mm 0,0 UV-I 5 W/m 6,6 C 7,2 C 6,4 km/h (2 Bft) 100,00 %
20.10.2016 08:00 7,2 C 95 % 1015,3 hPa 0,0 l/m 6,1 km/h (2 Bft) S-SW 203 0 min 0,000 mm 0,0 UV-I 5 W/m 6,5 C 7,2 C 11,3 km/h (2 Bft) 100,00 %
20.10.2016 08:02 7,2 C 95 % 1015,3 hPa 0,0 l/m 6,1 km/h (2 Bft) S 185 0 min 0,000 mm 0,0 UV-I 3 W/m 6,5 C 7,2 C 9,7 km/h (2 Bft) 100,00 %
20.10.2016 08:04 7,2 C 95 % 1015,3 hPa 0,0 l/m 4,6 km/h (1 Bft) S 189 0 min 0,000 mm 0,0 UV-I 0 W/m 6,5 C 7,2 C 8,0 km/h (2 Bft) 97,44 %
20.10.2016 08:06 7,2 C 95 % 1015,2 hPa 0,0 l/m 4,0 km/h (1 Bft) S 178 0 min 0,000 mm 0,0 UV-I 0 W/m 6,5 C 7,2 C 8,0 km/h (2 Bft) 100,00 %
20.10.2016 08:08 7,2 C 95 % 1015,2 hPa 0,0 l/m 1,9 km/h (1 Bft) S 178 0 min 0,000 mm 0,0 UV-I 2 W/m 6,5 C 7,2 C 4,8 km/h (1 Bft) 100,00 %
20.10.2016 08:10 7,2 C 95 % 1015,2 hPa 0,0 l/m 3,3 km/h (1 Bft) S 172 0 min 0,000 mm 0,0 UV-I 5 W/m 6,5 C 7,2 C 8,0 km/h (2 Bft) 100,00 %
20.10.2016 08:12 7,2 C 94 % 1015,3 hPa 0,0 l/m 3,5 km/h (1 Bft) S-SW 195 0 min 0,000 mm 0,0 UV-I 6 W/m 6,3 C 7,2 C 6,4 km/h (2 Bft) 100,00 %
20.10.2016 08:14 7,2 C 95 % 1015,3 hPa 0,0 l/m 3,6 km/h (1 Bft) S-SW 211 0 min 0,000 mm 0,0 UV-I 8 W/m 6,5 C 7,2 C 6,4 km/h (2 Bft) 98,00 %
20.10.2016 08:15 7,2 C 95 % 1015,3 hPa 0,0 l/m 3,2 km/h (1 Bft) S-SW 202 0 min 0,000 mm 0,0 UV-I 8 W/m 6,5 C 7,2 C 6,4 km/h (2 Bft) 100,00 %
20.10.2016 08:18 7,2 C 95 % 1015,3 hPa 0,0 l/m 3,6 km/h (1 Bft) S 189 0 min 0,000 mm 0,0 UV-I 11 W/m 6,5 C 7,2 C 4,8 km/h (1 Bft) 100,00 %
20.10.2016 08:20 7,2 C 95 % 1015,3 hPa 0,0 l/m 3,9 km/h (1 Bft) S-SW 200 0 min 0,000 mm 0,0 UV-I 14 W/m 6,5 C 7,2 C 6,4 km/h (2 Bft) 97,87 %
20.10.2016 08:22 7,2 C 95 % 1015,3 hPa 0,0 l/m 3,6 km/h (1 Bft) S 186 0 min 0,000 mm 0,0 UV-I 16 W/m 6,5 C 7,2 C 6,4 km/h (2 Bft) 98,11 %
20.10.2016 08:24 7,2 C 95 % 1015,3 hPa 0,0 l/m 5,0 km/h (1 Bft) S-SW 196 0 min 0,000 mm 0,0 UV-I 15 W/m 6,5 C 7,2 C 8,0 km/h (2 Bft) 97,37 %
20.10.2016 08:26 7,2 C 95 % 1015,3 hPa 0,0 l/m 4,4 km/h (1 Bft) S 172 0 min 0,000 mm 0,0 UV-I 15 W/m 6,5 C 7,2 C 9,7 km/h (2 Bft) 98,11 %
20.10.2016 08:28 7,2 C 95 % 1015,3 hPa 0,0 l/m 4,8 km/h (1 Bft) S-SW 201 0 min 0,000 mm 0,0 UV-I 16 W/m 6,5 C 7,2 C 8,0 km/h (2 Bft) 97,62 %
20.10.2016 08:30 7,2 C 95 % 1015,4 hPa 0,0 l/m 3,6 km/h (1 Bft) S-SW 196 0 min 0,000 mm 0,0 UV-I 16 W/m 6,5 C 7,2 C 8,0 km/h (2 Bft) 96,36 %
20.10.2016 08:32 7,2 C 95 % 1015,4 hPa 0,0 l/m 5,0 km/h (1 Bft) S-SW 206 0 min 0,000 mm 0,0 UV-I 18 W/m 6,5 C 7,2 C 9,7 km/h (2 Bft) 100,00 %
20.10.2016 08:34 7,2 C 95 % 1015,4 hPa 0,0 l/m 4,9 km/h (1 Bft) SW 225 0 min 0,000 mm 0,0 UV-I 17 W/m 6,5 C 7,2 C 9,7 km/h (2 Bft) 93,62 %
20.10.2016 08:36 7,2 C 95 % 1015,3 hPa 0,0 l/m 3,3 km/h (1 Bft) S 186 0 min 0,000 mm 0,0 UV-I 17 W/m 6,5 C 7,2 C 8,0 km/h (2 Bft) 98,21 %
20.10.2016 08:38 7,2 C 95 % 1015,3 hPa 0,0 l/m 3,4 km/h (1 Bft) S 178 0 min 0,000 mm 0,0 UV-I 19 W/m 6,5 C 7,2 C 6,4 km/h (2 Bft) 97,87 %
20.10.2016 08:40 7,2 C 95 % 1015,3 hPa 0,0 l/m 3,6 km/h (1 Bft) S 184 0 min 0,000 mm 0,0 UV-I 21 W/m 6,5 C 7,2 C 8,0 km/h (2 Bft) 95,65 %
20.10.2016 08:42 7,2 C 95 % 1015,3 hPa 0,0 l/m 2,5 km/h (1 Bft) S 184 0 min 0,000 mm 0,0 UV-I 25 W/m 6,5 C 7,2 C 3,2 km/h (1 Bft) 98,59 %
20.10.2016 08:44 7,2 C 95 % 1015,3 hPa 0,0 l/m 2,5 km/h (1 Bft) S 176 0 min 0,000 mm 0,0 UV-I 27 W/m 6,5 C 7,2 C 4,8 km/h (1 Bft) 97,37 %
20.10.2016 08:46 7,2 C 95 % 1015,3 hPa 0,0 l/m 2,6 km/h (1 Bft) S-SW 193 0 min 0,000 mm 0,0 UV-I 27 W/m 6,5 C 7,2 C 6,4 km/h (2 Bft) 98,00 %
20.10.2016 08:48 7,2 C 95 % 1015,3 hPa 0,0 l/m 3,0 km/h (1 Bft) S-SW 193 0 min 0,000 mm 0,0 UV-I 25 W/m 6,5 C 7,2 C 4,8 km/h (1 Bft) 97,87 %
20.10.2016 08:50 7,3 C 95 % 1015,3 hPa 0,0 l/m 3,2 km/h (1 Bft) S 182 0 min 0,000 mm 0,0 UV-I 26 W/m 6,6 C 7,3 C 4,8 km/h (1 Bft) 96,00 %
20.10.2016 08:52 7,3 C 95 % 1015,3 hPa 0,0 l/m 3,6 km/h (1 Bft) S-SW 201 0 min 0,000 mm 0,0 UV-I 32 W/m 6,6 C 7,3 C 6,4 km/h (2 Bft) 97,87 %
20.10.2016 08:54 7,3 C 95 % 1015,2 hPa 0,0 l/m 4,0 km/h (1 Bft) S-SW 207 0 min 0,000 mm 0,0 UV-I 32 W/m 6,6 C 7,3 C 8,0 km/h (2 Bft) 100,00 %
20.10.2016 08:56 7,3 C 95 % 1015,3 hPa 0,0 l/m 4,4 km/h (1 Bft) S-SW 207 0 min 0,000 mm 0,0 UV-I 30 W/m 6,6 C 7,3 C 8,0 km/h (2 Bft) 98,11 %
20.10.2016 08:58 7,3 C 96 % 1015,3 hPa 0,0 l/m 4,1 km/h (1 Bft) S-SW 205 0 min 0,000 mm 0,0 UV-I 30 W/m 6,7 C 7,3 C 6,4 km/h (2 Bft) 95,74 %
20.10.2016 09:00 7,3 C 96 % 1015,4 hPa 0,0 l/m 3,6 km/h (1 Bft) S-SW 204 0 min 0,000 mm 0,0 UV-I 30 W/m 6,7 C 7,3 C 4,8 km/h (1 Bft) 100,00 %
20.10.2016 09:02 7,3 C 96 % 1015,4 hPa 0,0 l/m 2,3 km/h (1 Bft) S-SW 198 0 min 0,000 mm 0,0 UV-I 32 W/m 6,7 C 7,3 C 4,8 km/h (1 Bft) 97,87 %
20.10.2016 09:04 7,3 C 96 % 1015,4 hPa 0,0 l/m 2,7 km/h (1 Bft) S-SW 198 0 min 0,000 mm 0,0 UV-I 32 W/m 6,7 C 7,3 C 6,4 km/h (2 Bft) 100,00 %
20.10.2016 09:06 7,3 C 96 % 1015,5 hPa 0,0 l/m 4,0 km/h (1 Bft) S-SW 197 0 min 0,000 mm 0,0 UV-I 33 W/m 6,7 C 7,3 C 6,4 km/h (2 Bft) 97,37 %
20.10.2016 09:12 7,4 C 96 % 1015,6 hPa 0,0 l/m 3,6 km/h (1 Bft) S-SW 205 0 min 0,000 mm 0,0 UV-I 38 W/m 6,8 C 7,4 C 4,8 km/h (1 Bft) 99,35 %
20.10.2016 09:14 7,4 C 96 % 1015,6 hPa 0,0 l/m 5,2 km/h (1 Bft) SW 219 0 min 0,000 mm 0,0 UV-I 34 W/m 6,8 C 7,4 C 8,0 km/h (2 Bft) 100,00 %
20.10.2016 09:16 7,4 C 96 % 1015,6 hPa 0,0 l/m 4,8 km/h (1 Bft) S-SW 203 0 min 0,000 mm 0,0 UV-I 31 W/m 6,8 C 7,4 C 8,0 km/h (2 Bft) 100,00 %
20.10.2016 09:18 7,4 C 95 % 1015,6 hPa 0,0 l/m 3,7 km/h (1 Bft) SW 214 0 min 0,000 mm 0,0 UV-I 30 W/m 6,7 C 7,4 C 6,4 km/h (2 Bft) 100,00 %
20.10.2016 09:20 7,4 C 95 % 1015,6 hPa 0,0 l/m 4,5 km/h (1 Bft) S-SW 207 0 min 0,000 mm 0,0 UV-I 32 W/m 6,7 C 7,4 C 6,4 km/h (2 Bft) 100,00 %
20.10.2016 09:22 7,4 C 95 % 1015,6 hPa 0,0 l/m 4,1 km/h (1 Bft) S-SW 211 0 min 0,000 mm 0,0 UV-I 31 W/m 6,7 C 7,4 C 6,4 km/h (2 Bft) 100,00 %
20.10.2016 09:24 7,4 C 96 % 1015,6 hPa 0,0 l/m 4,8 km/h (1 Bft) S 173 0 min 0,000 mm 0,0 UV-I 31 W/m 6,8 C 7,4 C 6,4 km/h (2 Bft) 100,00 %
20.10.2016 09:26 7,4 C 95 % 1015,7 hPa 0,0 l/m 2,9 km/h (1 Bft) S-SW 196 0 min 0,000 mm 0,0 UV-I 33 W/m 6,7 C 7,4 C 6,4 km/h (2 Bft) 100,00 %
20.10.2016 09:28 7,4 C 96 % 1015,7 hPa 0,2 l/m 3,0 km/h (1 Bft) S-SW 207 0 min 0,000 mm 0,0 UV-I 39 W/m 6,8 C 7,4 C 6,4 km/h (2 Bft) 100,00 %
20.10.2016 09:30 7,4 C 96 % 1015,7 hPa 0,0 l/m 2,9 km/h (1 Bft) S-SW 207 0 min 0,000 mm 0,0 UV-I 45 W/m 6,8 C 7,4 C 4,8 km/h (1 Bft) 97,37 %
20.10.2016 09:32 7,4 C 96 % 1015,6 hPa 0,0 l/m 4,0 km/h (1 Bft) S-SW 208 0 min 0,000 mm 0,0 UV-I 52 W/m 6,8 C 7,4 C 6,4 km/h (2 Bft) 100,00 %
20.10.2016 09:34 7,4 C 96 % 1015,6 hPa 0,0 l/m 5,3 km/h (1 Bft) S-SW 207 0 min 0,000 mm 0,0 UV-I 54 W/m 6,8 C 7,4 C 8,0 km/h (2 Bft) 100,00 %
20.10.2016 09:36 7,5 C 96 % 1015,6 hPa 0,0 l/m 3,5 km/h (1 Bft) S-SW 207 0 min 0,000 mm 0,0 UV-I 54 W/m 6,9 C 7,5 C 4,8 km/h (1 Bft) 100,00 %
20.10.2016 09:38 7,5 C 96 % 1015,6 hPa 0,0 l/m 2,8 km/h (1 Bft) S-SW 207 0 min 0,000 mm 0,0 UV-I 56 W/m 6,9 C 7,5 C 6,4 km/h (2 Bft) 100,00 %
20.10.2016 09:40 7,5 C 96 % 1015,6 hPa 0,0 l/m 4,5 km/h (1 Bft) S-SW 197 0 min 0,000 mm 0,0 UV-I 58 W/m 6,9 C 7,5 C 6,4 km/h (2 Bft) 98,00 %
20.10.2016 09:42 7,5 C 96 % 1015,6 hPa 0,0 l/m 2,5 km/h (1 Bft) S-SW 197 0 min 0,000 mm 0,0 UV-I 56 W/m 6,9 C 7,5 C 3,2 km/h (1 Bft) 100,00 %
20.10.2016 09:44 7,6 C 96 % 1015,5 hPa 0,0 l/m 4,2 km/h (1 Bft) S-SW 205 0 min 0,000 mm 0,0 UV-I 57 W/m 7,0 C 7,6 C 6,4 km/h (2 Bft) 100,00 %
20.10.2016 09:46 7,5 C 95 % 1015,4 hPa 0,0 l/m 4,0 km/h (1 Bft) S-SW 207 0 min 0,000 mm 0,0 UV-I 60 W/m 6,8 C 7,5 C 6,4 km/h (2 Bft) 100,00 %
20.10.2016 09:48 7,6 C 95 % 1015,4 hPa 0,0 l/m 3,8 km/h (1 Bft) S-SW 200 0 min 0,000 mm 0,0 UV-I 63 W/m 6,9 C 7,6 C 6,4 km/h (2 Bft) 100,00 %
20.10.2016 09:50 7,6 C 95 % 1015,4 hPa 0,0 l/m 4,4 km/h (1 Bft) S-SW 207 0 min 0,000 mm 0,0 UV-I 65 W/m 6,9 C 7,6 C 6,4 km/h (2 Bft) 97,87 %
20.10.2016 09:52 7,6 C 95 % 1015,3 hPa 0,0 l/m 4,0 km/h (1 Bft) S-SW 207 0 min 0,000 mm 0,0 UV-I 67 W/m 6,9 C 7,6 C 6,4 km/h (2 Bft) 100,00 %
20.10.2016 09:54 7,6 C 95 % 1015,3 hPa 0,0 l/m 3,1 km/h (1 Bft) S-SW 207 0 min 0,000 mm 0,0 UV-I 70 W/m 6,9 C 7,6 C 4,8 km/h (1 Bft) 100,00 %
20.10.2016 09:56 7,6 C 95 % 1015,3 hPa 0,0 l/m 3,4 km/h (1 Bft) S-SW 206 0 min 0,000 mm 0,0 UV-I 70 W/m 6,9 C 7,6 C 4,8 km/h (1 Bft) 100,00 %
20.10.2016 09:58 7,6 C 95 % 1015,3 hPa 0,0 l/m 3,5 km/h (1 Bft) S-SW 208 0 min 0,000 mm 0,0 UV-I 69 W/m 6,9 C 7,6 C 4,8 km/h (1 Bft) 97,73 %
20.10.2016 10:00 7,6 C 95 % 1015,2 hPa 0,0 l/m 2,9 km/h (1 Bft) SW 227 0 min 0,025 mm 0,0 UV-I 69 W/m 6,9 C 7,6 C 4,8 km/h (1 Bft) 100,00 %
20.10.2016 10:02 7,7 C 95 % 1015,2 hPa 0,0 l/m 3,1 km/h (1 Bft) S-SW 207 0 min 0,000 mm 0,0 UV-I 73 W/m 7,0 C 7,7 C 6,4 km/h (2 Bft) 97,87 %
20.10.2016 10:04 7,7 C 95 % 1015,3 hPa 0,0 l/m 4,4 km/h (1 Bft) S-SW 212 0 min 0,000 mm 0,0 UV-I 76 W/m 7,0 C 7,7 C 8,0 km/h (2 Bft) 100,00 %
20.10.2016 10:06 7,8 C 95 % 1015,4 hPa 0,0 l/m 4,7 km/h (1 Bft) S-SW 192 0 min 0,000 mm 0,0 UV-I 76 W/m 7,0 C 7,8 C 6,4 km/h (2 Bft) 97,37 %
20.10.2016 10:08 7,8 C 95 % 1015,5 hPa 0,0 l/m 7,8 km/h (2 Bft) SW 223 0 min 0,000 mm 0,0 UV-I 76 W/m 7,0 C 6,7 C 11,3 km/h (2 Bft) 100,00 %
20.10.2016 10:10 7,8 C 94 % 1015,5 hPa 0,0 l/m 4,8 km/h (1 Bft) S 171 0 min 0,000 mm 0,0 UV-I 76 W/m 6,9 C 7,8 C 8,0 km/h (2 Bft) 100,00 %
20.10.2016 10:12 7,8 C 94 % 1015,6 hPa 0,0 l/m 4,1 km/h (1 Bft) S-SW 196 0 min 0,000 mm 0,0 UV-I 76 W/m 6,9 C 7,8 C 8,0 km/h (2 Bft) 100,00 %
20.10.2016 10:14 7,8 C 94 % 1015,7 hPa 0,0 l/m 4,8 km/h (1 Bft) S 175 0 min 0,000 mm 0,0 UV-I 76 W/m 6,9 C 7,8 C 8,0 km/h (2 Bft) 100,00 %
20.10.2016 10:16 7,8 C 94 % 1015,6 hPa 0,0 l/m 3,7 km/h (1 Bft) S-SW 200 0 min 0,000 mm 0,0 UV-I 76 W/m 6,9 C 7,8 C 6,4 km/h (2 Bft) 100,00 %
20.10.2016 10:18 7,8 C 94 % 1015,6 hPa 0,0 l/m 2,6 km/h (1 Bft) S-SW 194 0 min 0,000 mm 0,0 UV-I 76 W/m 6,9 C 7,8 C 6,4 km/h (2 Bft) 100,00 %
20.10.2016 10:20 7,8 C 94 % 1015,6 hPa 0,0 l/m 3,5 km/h (1 Bft) S-SW 198 0 min 0,000 mm 0,0 UV-I 76 W/m 6,9 C 7,8 C 6,4 km/h (2 Bft) 97,87 %
20.10.2016 10:22 7,8 C 94 % 1015,6 hPa 0,0 l/m 3,5 km/h (1 Bft) S-SW 196 0 min 0,000 mm 0,0 UV-I 76 W/m 6,9 C 7,8 C 8,0 km/h (2 Bft) 94,74 %
20.10.2016 10:24 7,8 C 94 % 1015,5 hPa 0,0 l/m 7,9 km/h (2 Bft) SW 219 0 min 0,000 mm 0,0 UV-I 76 W/m 6,9 C 6,6 C 12,9 km/h (3 Bft) 97,92 %
20.10.2016 10:26 7,8 C 93 % 1015,5 hPa 0,0 l/m 5,6 km/h (1 Bft) SW 218 0 min 0,000 mm 0,0 UV-I 76 W/m 6,7 C 7,8 C 8,0 km/h (2 Bft) 98,00 %
20.10.2016 10:28 7,8 C 93 % 1015,6 hPa 0,0 l/m 4,9 km/h (1 Bft) W-SW 251 0 min 0,000 mm 0,0 UV-I 76 W/m 6,7 C 7,8 C 8,0 km/h (2 Bft) 93,88 %
20.10.2016 10:30 7,8 C 93 % 1015,5 hPa 0,0 l/m 5,9 km/h (2 Bft) S 190 0 min 0,000 mm 0,0 UV-I 76 W/m 6,7 C 7,8 C 11,3 km/h (2 Bft) 97,62 %
20.10.2016 10:32 7,8 C 93 % 1015,5 hPa 0,0 l/m 5,9 km/h (2 Bft) SW 217 0 min 0,000 mm 0,0 UV-I 76 W/m 6,7 C 7,8 C 8,0 km/h (2 Bft) 97,96 %
20.10.2016 10:34 7,8 C 93 % 1015,5 hPa 0,0 l/m 4,5 km/h (1 Bft) S-SW 211 0 min 0,000 mm 0,0 UV-I 76 W/m 6,7 C 7,8 C 6,4 km/h (2 Bft) 94,00 %
20.10.2016 10:36 7,8 C 93 % 1015,5 hPa 0,0 l/m 4,8 km/h (1 Bft) SW 222 0 min 0,000 mm 0,0 UV-I 76 W/m 6,7 C 7,8 C 8,0 km/h (2 Bft) 98,00 %
20.10.2016 10:38 7,8 C 93 % 1015,5 hPa 0,0 l/m 4,3 km/h (1 Bft) SW 221 0 min 0,000 mm 0,0 UV-I 76 W/m 6,7 C 7,8 C 6,4 km/h (2 Bft) 97,14 %
20.10.2016 10:40 7,8 C 94 % 1015,5 hPa 0,0 l/m 4,2 km/h (1 Bft) S-SW 207 0 min 0,000 mm 0,0 UV-I 76 W/m 6,9 C 7,8 C 8,0 km/h (2 Bft) 98,21 %
20.10.2016 10:42 7,9 C 93 % 1015,5 hPa 0,0 l/m 4,3 km/h (1 Bft) S-SW 210 0 min 0,000 mm 0,0 UV-I 76 W/m 6,8 C 7,9 C 9,7 km/h (2 Bft) 98,00 %
20.10.2016 10:44 7,9 C 93 % 1015,5 hPa 0,0 l/m 6,9 km/h (2 Bft) S-SW 210 0 min 0,000 mm 0,0 UV-I 76 W/m 6,8 C 7,5 C 11,3 km/h (2 Bft) 97,14 %
20.10.2016 10:46 7,9 C 93 % 1015,5 hPa 0,0 l/m 4,9 km/h (1 Bft) SW 219 0 min 0,000 mm 0,0 UV-I 76 W/m 6,8 C 7,9 C 8,0 km/h (2 Bft) 98,00 %
20.10.2016 10:48 7,9 C 93 % 1015,5 hPa 0,0 l/m 5,7 km/h (1 Bft) S-SW 194 0 min 0,000 mm 0,0 UV-I 76 W/m 6,8 C 7,9 C 8,0 km/h (2 Bft) 98,00 %
20.10.2016 10:50 7,9 C 93 % 1015,5 hPa 0,0 l/m 6,4 km/h (2 Bft) S-SW 201 0 min 0,000 mm 0,0 UV-I 76 W/m 6,8 C 7,9 C 11,3 km/h (2 Bft) 94,34 %
20.10.2016 10:52 7,9 C 93 % 1015,4 hPa 0,0 l/m 6,8 km/h (2 Bft) S-SW 205 0 min 0,000 mm 0,0 UV-I 76 W/m 6,8 C 7,6 C 9,7 km/h (2 Bft) 97,37 %
20.10.2016 10:54 7,9 C 92 % 1015,4 hPa 0,0 l/m 5,0 km/h (1 Bft) SW 217 0 min 0,000 mm 0,0 UV-I 76 W/m 6,7 C 7,9 C 8,0 km/h (2 Bft) 96,00 %
20.10.2016 10:56 7,9 C 92 % 1015,4 hPa 0,0 l/m 5,7 km/h (1 Bft) S 188 0 min 0,000 mm 0,0 UV-I 76 W/m 6,7 C 7,9 C 11,3 km/h (2 Bft) 100,00 %
20.10.2016 10:58 7,9 C 92 % 1015,3 hPa 0,0 l/m 5,0 km/h (1 Bft) SW 223 0 min 0,000 mm 0,0 UV-I 76 W/m 6,7 C 7,9 C 8,0 km/h (2 Bft) 97,87 %
20.10.2016 11:00 7,9 C 93 % 1015,3 hPa 0,0 l/m 5,6 km/h (1 Bft) SW 222 0 min 0,000 mm 0,0 UV-I 76 W/m 6,8 C 7,9 C 9,7 km/h (2 Bft) 97,87 %
20.10.2016 11:03 7,9 C 93 % 1015,3 hPa 0,0 l/m 5,2 km/h (1 Bft) S-SW 202 0 min 0,000 mm 0,0 UV-I 76 W/m 6,8 C 7,9 C 8,0 km/h (2 Bft) 100,00 %
20.10.2016 11:04 8,0 C 93 % 1015,3 hPa 0,0 l/m 5,4 km/h (1 Bft) S-SW 205 0 min 0,000 mm 0,0 UV-I 76 W/m 6,9 C 8,0 C 6,4 km/h (2 Bft) 100,00 %
20.10.2016 11:06 7,9 C 92 % 1015,3 hPa 0,0 l/m 4,8 km/h (1 Bft) S-SW 201 0 min 0,000 mm 0,0 UV-I 76 W/m 6,7 C 7,9 C 6,4 km/h (2 Bft) 100,00 %
20.10.2016 11:08 8,0 C 93 % 1015,3 hPa 0,0 l/m 3,8 km/h (1 Bft) S-SW 213 0 min 0,000 mm 0,0 UV-I 76 W/m 6,9 C 8,0 C 4,8 km/h (1 Bft) 100,00 %
20.10.2016 11:10 8,0 C 92 % 1015,3 hPa 0,0 l/m 3,8 km/h (1 Bft) SW 230 0 min 0,000 mm 0,0 UV-I 76 W/m 6,8 C 8,0 C 4,8 km/h (1 Bft) 100,00 %
20.10.2016 11:12 8,0 C 92 % 1015,3 hPa 0,0 l/m 3,4 km/h (1 Bft) SW 230 0 min 0,000 mm 0,0 UV-I 76 W/m 6,8 C 8,0 C 4,8 km/h (1 Bft) 97,87 %
20.10.2016 11:14 8,1 C 92 % 1015,2 hPa 0,0 l/m 3,5 km/h (1 Bft) S-SW 202 0 min 0,000 mm 0,0 UV-I 76 W/m 6,9 C 8,1 C 8,0 km/h (2 Bft) 100,00 %
20.10.2016 11:16 8,1 C 92 % 1015,2 hPa 0,0 l/m 3,5 km/h (1 Bft) S-SW 202 0 min 0,000 mm 0,0 UV-I 76 W/m 6,9 C 8,1 C 4,8 km/h (1 Bft) 100,00 %
20.10.2016 11:18 8,1 C 92 % 1015,2 hPa 0,0 l/m 2,6 km/h (1 Bft) S-SW 202 0 min 0,000 mm 0,0 UV-I 76 W/m 6,9 C 8,1 C 4,8 km/h (1 Bft) 100,00 %
20.10.2016 11:20 8,1 C 92 % 1015,2 hPa 0,0 l/m 1,7 km/h (1 Bft) S-SW 206 0 min 0,000 mm 0,0 UV-I 76 W/m 6,9 C 8,1 C 3,2 km/h (1 Bft) 100,00 %
20.10.2016 11:22 8,1 C 92 % 1015,3 hPa 0,0 l/m 2,9 km/h (1 Bft) S-SW 207 0 min 0,000 mm 0,0 UV-I 76 W/m 6,9 C 8,1 C 4,8 km/h (1 Bft) 100,00 %
20.10.2016 11:24 8,1 C 92 % 1015,4 hPa 0,0 l/m 1,9 km/h (1 Bft) S-SW 207 0 min 0,000 mm 0,0 UV-I 76 W/m 6,9 C 8,1 C 3,2 km/h (1 Bft) 100,00 %
20.10.2016 11:26 8,2 C 93 % 1015,4 hPa 0,0 l/m 2,4 km/h (1 Bft) S-SW 207 0 min 0,000 mm 0,0 UV-I 76 W/m 7,1 C 8,2 C 3,2 km/h (1 Bft) 100,00 %
20.10.2016 11:28 8,2 C 93 % 1015,4 hPa 0,0 l/m 2,7 km/h (1 Bft) S-SW 207 0 min 0,000 mm 0,0 UV-I 76 W/m 7,1 C 8,2 C 4,8 km/h (1 Bft) 98,00 %
20.10.2016 11:30 8,2 C 93 % 1015,4 hPa 0,0 l/m 2,1 km/h (1 Bft) S-SW 207 0 min 0,000 mm 0,0 UV-I 76 W/m 7,1 C 8,2 C 3,2 km/h (1 Bft) 100,00 %
20.10.2016 11:32 8,2 C 93 % 1015,4 hPa 0,0 l/m 2,6 km/h (1 Bft) S-SW 207 0 min 0,000 mm 0,0 UV-I 76 W/m 7,1 C 8,2 C 4,8 km/h (1 Bft) 97,87 %
20.10.2016 11:34 8,2 C 93 % 1015,5 hPa 0,0 l/m 3,3 km/h (1 Bft) S-SW 207 0 min 0,000 mm 0,0 UV-I 76 W/m 7,1 C 8,2 C 4,8 km/h (1 Bft) 100,00 %
20.10.2016 11:36 8,3 C 93 % 1015,5 hPa 0,0 l/m 1,2 km/h (1 Bft) S-SW 207 0 min 0,000 mm 0,0 UV-I 76 W/m 7,2 C 8,3 C 3,2 km/h (1 Bft) 100,00 %
20.10.2016 11:39 8,3 C 92 % 1015,5 hPa 0,0 l/m 2,3 km/h (1 Bft) S-SW 207 0 min 0,000 mm 0,0 UV-I 76 W/m 7,1 C 8,3 C 4,8 km/h (1 Bft) 98,65 %
20.10.2016 11:40 8,3 C 92 % 1015,5 hPa 0,0 l/m 1,7 km/h (1 Bft) S-SW 207 0 min 0,000 mm 0,0 UV-I 76 W/m 7,1 C 8,3 C 3,2 km/h (1 Bft) 100,00 %
20.10.2016 11:42 8,2 C 92 % 1015,5 hPa 0,0 l/m 2,3 km/h (1 Bft) S-SW 207 0 min 0,000 mm 0,0 UV-I 76 W/m 7,0 C 8,2 C 3,2 km/h (1 Bft) 100,00 %
20.10.2016 11:44 8,2 C 92 % 1015,4 hPa 0,0 l/m 2,0 km/h (1 Bft) S-SW 207 0 min 0,000 mm 0,0 UV-I 76 W/m 7,0 C 8,2 C 3,2 km/h (1 Bft) 100,00 %
20.10.2016 11:46 8,2 C 92 % 1015,4 hPa 0,0 l/m 1,1 km/h (1 Bft) S-SW 207 0 min 0,000 mm 0,0 UV-I 76 W/m 7,0 C 8,2 C 3,2 km/h (1 Bft) 98,11 %
20.10.2016 11:48 8,2 C 93 % 1015,4 hPa 0,0 l/m 2,9 km/h (1 Bft) S-SW 207 0 min 0,000 mm 0,0 UV-I 76 W/m 7,1 C 8,2 C 4,8 km/h (1 Bft) 100,00 %
20.10.2016 11:50 8,2 C 92 % 1015,4 hPa 0,0 l/m 2,7 km/h (1 Bft) S-SW 207 0 min 0,000 mm 0,0 UV-I 76 W/m 7,0 C 8,2 C 4,8 km/h (1 Bft) 100,00 %
20.10.2016 11:52 8,3 C 92 % 1015,4 hPa 0,0 l/m 2,7 km/h (1 Bft) S-SW 207 0 min 0,000 mm 0,0 UV-I 76 W/m 7,1 C 8,3 C 4,8 km/h (1 Bft) 100,00 %
20.10.2016 11:54 8,3 C 92 % 1015,4 hPa 0,0 l/m 2,3 km/h (1 Bft) S-SW 207 0 min 0,000 mm 0,0 UV-I 76 W/m 7,1 C 8,3 C 3,2 km/h (1 Bft) 100,00 %
20.10.2016 11:56 8,3 C 92 % 1015,3 hPa 0,0 l/m 2,0 km/h (1 Bft) S-SW 207 0 min 0,000 mm 0,0 UV-I 76 W/m 7,1 C 8,3 C 3,2 km/h (1 Bft) 97,14 %
20.10.2016 11:58 8,3 C 92 % 1015,3 hPa 0,0 l/m 0,8 km/h (0 Bft) S-SW 207 0 min 0,000 mm 0,0 UV-I 76 W/m 7,1 C 8,3 C 3,2 km/h (1 Bft) 98,00 %
20.10.2016 12:00 8,3 C 92 % 1015,3 hPa 0,0 l/m 2,0 km/h (1 Bft) S-SW 207 0 min 0,000 mm 0,0 UV-I 76 W/m 7,1 C 8,3 C 3,2 km/h (1 Bft) 100,00 %
20.10.2016 12:02 8,3 C 92 % 1015,3 hPa 0,0 l/m 1,6 km/h (1 Bft) S-SW 207 0 min 0,000 mm 0,0 UV-I 76 W/m 7,1 C 8,3 C 3,2 km/h (1 Bft) 100,00 %
20.10.2016 12:04 8,3 C 92 % 1015,3 hPa 0,0 l/m 2,3 km/h (1 Bft) S-SW 207 0 min 0,000 mm 0,0 UV-I 76 W/m 7,1 C 8,3 C 3,2 km/h (1 Bft) 97,87 %
20.10.2016 12:06 8,3 C 92 % 1015,3 hPa 0,0 l/m 2,6 km/h (1 Bft) S-SW 207 0 min 0,000 mm 0,0 UV-I 76 W/m 7,1 C 8,3 C 4,8 km/h (1 Bft) 100,00 %
20.10.2016 12:09 8,3 C 92 % 1015,3 hPa 0,0 l/m 1,1 km/h (1 Bft) S-SW 207 0 min 0,000 mm 0,0 UV-I 76 W/m 7,1 C 8,3 C 3,2 km/h (1 Bft) 100,00 %
20.10.2016 12:10 8,4 C 92 % 1015,3 hPa 0,0 l/m 2,0 km/h (1 Bft) S-SW 207 0 min 0,000 mm 0,0 UV-I 76 W/m 7,2 C 8,4 C 3,2 km/h (1 Bft) 100,00 %
20.10.2016 12:12 8,4 C 92 % 1015,2 hPa 0,0 l/m 1,6 km/h (1 Bft) S-SW 207 0 min 0,000 mm 0,0 UV-I 76 W/m 7,2 C 8,4 C 3,2 km/h (1 Bft) 100,00 %
20.10.2016 12:14 8,4 C 91 % 1015,2 hPa 0,0 l/m 1,3 km/h (1 Bft) S-SW 207 0 min 0,000 mm 0,0 UV-I 76 W/m 7,0 C 8,4 C 4,8 km/h (1 Bft) 97,87 %
20.10.2016 12:16 8,3 C 91 % 1015,2 hPa 0,0 l/m 2,3 km/h (1 Bft) S-SW 207 0 min 0,000 mm 0,0 UV-I 76 W/m 6,9 C 8,3 C 3,2 km/h (1 Bft) 98,00 %
20.10.2016 12:18 8,3 C 91 % 1015,2 hPa 0,0 l/m 0,9 km/h (0 Bft) S-SW 207 0 min 0,000 mm 0,0 UV-I 76 W/m 6,9 C 8,3 C 3,2 km/h (1 Bft) 100,00 %
20.10.2016 12:20 8,4 C 91 % 1015,2 hPa 0,0 l/m 2,3 km/h (1 Bft) S-SW 207 0 min 0,000 mm 0,0 UV-I 76 W/m 7,0 C 8,4 C 3,2 km/h (1 Bft) 97,37 %
20.10.2016 12:22 8,4 C 91 % 1015,3 hPa 0,0 l/m 1,1 km/h (1 Bft) S-SW 207 0 min 0,000 mm 0,0 UV-I 76 W/m 7,0 C 8,4 C 3,2 km/h (1 Bft) 98,21 %
20.10.2016 12:24 8,4 C 91 % 1015,3 hPa 0,0 l/m 1,5 km/h (1 Bft) S 175 0 min 0,000 mm 0,0 UV-I 76 W/m 7,0 C 8,4 C 3,2 km/h (1 Bft) 97,56 %
20.10.2016 12:26 8,4 C 91 % 1015,2 hPa 0,0 l/m 1,6 km/h (1 Bft) S 175 0 min 0,000 mm 0,0 UV-I 76 W/m 7,0 C 8,4 C 3,2 km/h (1 Bft) 97,62 %
20.10.2016 12:28 8,4 C 91 % 1015,2 hPa 0,0 l/m 1,4 km/h (1 Bft) S 175 0 min 0,000 mm 0,0 UV-I 76 W/m 7,0 C 8,4 C 3,2 km/h (1 Bft) 97,87 %
20.10.2016 12:30 8,4 C 91 % 1015,2 hPa 0,0 l/m 2,0 km/h (1 Bft) S 175 0 min 0,000 mm 0,0 UV-I 76 W/m 7,0 C 8,4 C 4,8 km/h (1 Bft) 96,00 %
20.10.2016 12:32 8,4 C 91 % 1015,2 hPa 0,0 l/m 1,2 km/h (1 Bft) S 174 0 min 0,000 mm 0,0 UV-I 76 W/m 7,0 C 8,4 C 3,2 km/h (1 Bft) 95,74 %
20.10.2016 12:34 8,4 C 91 % 1015,3 hPa 0,0 l/m 1,8 km/h (1 Bft) S 174 0 min 0,000 mm 0,0 UV-I 76 W/m 7,0 C 8,4 C 3,2 km/h (1 Bft) 96,00 %
20.10.2016 12:36 8,5 C 92 % 1015,3 hPa 0,0 l/m 1,5 km/h (1 Bft) S 174 0 min 0,000 mm 0,0 UV-I 76 W/m 7,3 C 8,5 C 3,2 km/h (1 Bft) 97,73 %
20.10.2016 12:38 8,5 C 91 % 1015,3 hPa 0,0 l/m 0,1 km/h (0 Bft) S 174 0 min 0,000 mm 0,0 UV-I 76 W/m 7,1 C 8,5 C 1,6 km/h (1 Bft) 97,87 %
20.10.2016 12:40 8,6 C 92 % 1015,3 hPa 0,0 l/m 1,4 km/h (1 Bft) S 174 0 min 0,000 mm 0,0 UV-I 76 W/m 7,4 C 8,6 C 3,2 km/h (1 Bft) 98,00 %
20.10.2016 12:42 8,6 C 92 % 1015,3 hPa 0,0 l/m 2,1 km/h (1 Bft) S 174 0 min 0,000 mm 0,0 UV-I 76 W/m 7,4 C 8,6 C 4,8 km/h (1 Bft) 98,00 %
20.10.2016 12:44 8,6 C 92 % 1015,2 hPa 0,0 l/m 1,7 km/h (1 Bft) S 174 0 min 0,000 mm 0,0 UV-I 76 W/m 7,4 C 8,6 C 3,2 km/h (1 Bft) 97,87 %
20.10.2016 12:46 8,6 C 91 % 1015,2 hPa 0,0 l/m 0,7 km/h (0 Bft) S 174 0 min 0,000 mm 0,0 UV-I 76 W/m 7,2 C 8,6 C 3,2 km/h (1 Bft) 97,87 %
20.10.2016 12:48 8,6 C 91 % 1015,3 hPa 0,0 l/m 0,2 km/h (0 Bft) S 174 0 min 0,000 mm 0,0 UV-I 76 W/m 7,2 C 8,6 C 1,6 km/h (1 Bft) 95,12 %
20.10.2016 12:50 8,6 C 92 % 1015,3 hPa 0,0 l/m 1,0 km/h (0 Bft) S 174 0 min 0,000 mm 0,0 UV-I 76 W/m 7,4 C 8,6 C 3,2 km/h (1 Bft) 96,23 %
20.10.2016 12:52 8,6 C 92 % 1015,3 hPa 0,0 l/m 1,1 km/h (1 Bft) S 174 0 min 0,000 mm 0,0 UV-I 76 W/m 7,4 C 8,6 C 3,2 km/h (1 Bft) 100,00 %
20.10.2016 12:54 8,7 C 92 % 1015,3 hPa 0,0 l/m 3,3 km/h (1 Bft) S-SO 159 0 min 0,000 mm 0,0 UV-I 76 W/m 7,5 C 8,7 C 6,4 km/h (2 Bft) 96,23 %
20.10.2016 12:56 8,7 C 92 % 1015,2 hPa 0,0 l/m 3,5 km/h (1 Bft) S-SO 159 0 min 0,000 mm 0,0 UV-I 76 W/m 7,5 C 8,7 C 6,4 km/h (2 Bft) 100,00 %
20.10.2016 12:58 8,6 C 92 % 1015,1 hPa 0,0 l/m 2,3 km/h (1 Bft) S-SO 155 0 min 0,000 mm 0,0 UV-I 76 W/m 7,4 C 8,6 C 6,4 km/h (2 Bft) 96,00 %
20.10.2016 13:00 8,6 C 92 % 1015,1 hPa 0,0 l/m 3,4 km/h (1 Bft) S-SO 153 0 min 0,000 mm 0,0 UV-I 76 W/m 7,4 C 8,6 C 8,0 km/h (2 Bft) 98,00 %
20.10.2016 13:02 8,6 C 92 % 1015,2 hPa 0,0 l/m 2,6 km/h (1 Bft) S-SO 149 0 min 0,000 mm 0,0 UV-I 76 W/m 7,4 C 8,6 C 6,4 km/h (2 Bft) 97,22 %
20.10.2016 13:04 8,6 C 92 % 1015,2 hPa 0,0 l/m 2,4 km/h (1 Bft) SO 144 0 min 0,000 mm 0,0 UV-I 76 W/m 7,4 C 8,6 C 4,8 km/h (1 Bft) 100,00 %
20.10.2016 13:06 8,6 C 92 % 1015,2 hPa 0,0 l/m 1,0 km/h (0 Bft) SO 145 0 min 0,000 mm 0,0 UV-I 76 W/m 7,4 C 8,6 C 3,2 km/h (1 Bft) 98,11 %
20.10.2016 13:08 8,6 C 92 % 1015,2 hPa 0,0 l/m 2,0 km/h (1 Bft) SO 146 0 min 0,000 mm 0,0 UV-I 76 W/m 7,4 C 8,6 C 4,8 km/h (1 Bft) 97,44 %
20.10.2016 13:10 8,7 C 92 % 1015,2 hPa 0,0 l/m 2,3 km/h (1 Bft) SO 146 0 min 0,000 mm 0,0 UV-I 76 W/m 7,5 C 8,7 C 4,8 km/h (1 Bft) 98,00 %
20.10.2016 13:12 8,7 C 93 % 1015,2 hPa 0,0 l/m 0,6 km/h (0 Bft) SO 146 0 min 0,000 mm 0,0 UV-I 76 W/m 7,6 C 8,7 C 3,2 km/h (1 Bft) 100,00 %
20.10.2016 13:14 8,7 C 92 % 1015,2 hPa 0,0 l/m 1,3 km/h (1 Bft) SO 146 0 min 0,000 mm 0,0 UV-I 76 W/m 7,5 C 8,7 C 3,2 km/h (1 Bft) 100,00 %
20.10.2016 13:16 8,7 C 92 % 1015,2 hPa 0,0 l/m 2,2 km/h (1 Bft) S-SO 147 0 min 0,000 mm 0,0 UV-I 76 W/m 7,5 C 8,7 C 4,8 km/h (1 Bft) 100,00 %
20.10.2016 13:18 8,7 C 92 % 1015,2 hPa 0,0 l/m 2,3 km/h (1 Bft) S-SO 153 0 min 0,000 mm 0,0 UV-I 76 W/m 7,5 C 8,7 C 6,4 km/h (2 Bft) 97,37 %
20.10.2016 13:20 8,7 C 92 % 1015,1 hPa 0,0 l/m 1,9 km/h (1 Bft) S-SO 158 0 min 0,000 mm 0,0 UV-I 76 W/m 7,5 C 8,7 C 4,8 km/h (1 Bft) 100,00 %
20.10.2016 13:22 8,7 C 91 % 1015,1 hPa 0,0 l/m 1,4 km/h (1 Bft) S-SO 158 0 min 0,000 mm 0,0 UV-I 76 W/m 7,3 C 8,7 C 3,2 km/h (1 Bft) 98,00 %
20.10.2016 13:24 8,7 C 92 % 1015,0 hPa 0,0 l/m 2,4 km/h (1 Bft) S-SO 159 0 min 0,000 mm 0,0 UV-I 76 W/m 7,5 C 8,7 C 6,4 km/h (2 Bft) 100,00 %
20.10.2016 13:26 8,7 C 92 % 1015,1 hPa 0,0 l/m 1,2 km/h (1 Bft) S-SO 159 0 min 0,000 mm 0,0 UV-I 76 W/m 7,5 C 8,7 C 6,4 km/h (2 Bft) 98,00 %
20.10.2016 13:28 8,7 C 92 % 1015,0 hPa 0,0 l/m 2,1 km/h (1 Bft) S-SO 149 0 min 0,000 mm 0,0 UV-I 76 W/m 7,5 C 8,7 C 6,4 km/h (2 Bft) 100,00 %
20.10.2016 13:30 8,7 C 92 % 1015,1 hPa 0,0 l/m 2,8 km/h (1 Bft) S-SO 150 0 min 0,000 mm 0,0 UV-I 76 W/m 7,5 C 8,7 C 4,8 km/h (1 Bft) 100,00 %
20.10.2016 13:32 8,7 C 92 % 1015,1 hPa 0,0 l/m 2,0 km/h (1 Bft) S-SO 150 0 min 0,000 mm 0,0 UV-I 76 W/m 7,5 C 8,7 C 4,8 km/h (1 Bft) 100,00 %
20.10.2016 13:34 8,7 C 92 % 1015,1 hPa 0,0 l/m 1,8 km/h (1 Bft) S-SO 150 0 min 0,000 mm 0,0 UV-I 76 W/m 7,5 C 8,7 C 4,8 km/h (1 Bft) 97,87 %
20.10.2016 13:36 8,7 C 92 % 1015,0 hPa 0,0 l/m 0,8 km/h (0 Bft) S-SO 150 0 min 0,000 mm 0,0 UV-I 76 W/m 7,5 C 8,7 C 3,2 km/h (1 Bft) 100,00 %
20.10.2016 13:38 8,7 C 92 % 1014,9 hPa 0,0 l/m 3,8 km/h (1 Bft) SO 138 0 min 0,000 mm 0,0 UV-I 76 W/m 7,5 C 8,7 C 6,4 km/h (2 Bft) 100,00 %
20.10.2016 13:40 8,7 C 92 % 1014,9 hPa 0,0 l/m 4,2 km/h (1 Bft) O-SO 122 0 min 0,000 mm 0,0 UV-I 76 W/m 7,5 C 8,7 C 6,4 km/h (2 Bft) 100,00 %
20.10.2016 13:42 8,8 C 92 % 1014,8 hPa 0,0 l/m 5,3 km/h (1 Bft) SO 131 0 min 0,000 mm 0,0 UV-I 76 W/m 7,6 C 8,8 C 6,4 km/h (2 Bft) 100,00 %
20.10.2016 13:44 8,8 C 92 % 1014,7 hPa 0,0 l/m 2,4 km/h (1 Bft) SO 139 0 min 0,000 mm 0,0 UV-I 76 W/m 7,6 C 8,8 C 4,8 km/h (1 Bft) 100,00 %
20.10.2016 13:46 8,8 C 91 % 1014,7 hPa 0,0 l/m 5,2 km/h (1 Bft) O-SO 121 0 min 0,000 mm 0,0 UV-I 76 W/m 7,4 C 8,8 C 8,0 km/h (2 Bft) 100,00 %
20.10.2016 13:48 8,8 C 92 % 1014,6 hPa 0,0 l/m 4,0 km/h (1 Bft) O-SO 121 0 min 0,000 mm 0,0 UV-I 76 W/m 7,6 C 8,8 C 6,4 km/h (2 Bft) 100,00 %
20.10.2016 13:50 8,9 C 92 % 1014,6 hPa 0,0 l/m 3,3 km/h (1 Bft) SO 128 0 min 0,000 mm 0,0 UV-I 76 W/m 7,7 C 8,9 C 4,8 km/h (1 Bft) 100,00 %
20.10.2016 13:52 8,9 C 93 % 1014,6 hPa 0,0 l/m 5,2 km/h (1 Bft) O 100 0 min 0,000 mm 0,0 UV-I 76 W/m 7,8 C 8,9 C 6,4 km/h (2 Bft) 100,00 %
20.10.2016 13:54 9,0 C 93 % 1014,7 hPa 0,0 l/m 3,4 km/h (1 Bft) O-SO 108 0 min 0,000 mm 0,0 UV-I 76 W/m 7,9 C 9,0 C 6,4 km/h (2 Bft) 100,00 %
20.10.2016 13:56 9,1 C 94 % 1014,7 hPa 0,0 l/m 3,1 km/h (1 Bft) SO 132 0 min 0,000 mm 0,0 UV-I 76 W/m 8,2 C 9,1 C 6,4 km/h (2 Bft) 97,87 %
20.10.2016 13:58 9,1 C 92 % 1014,6 hPa 0,0 l/m 3,8 km/h (1 Bft) SO 146 0 min 0,000 mm 0,0 UV-I 76 W/m 7,9 C 9,1 C 11,3 km/h (2 Bft) 97,87 %
20.10.2016 14:00 9,1 C 92 % 1014,6 hPa 0,0 l/m 4,2 km/h (1 Bft) SO 144 0 min 0,000 mm 0,0 UV-I 76 W/m 7,9 C 9,1 C 8,0 km/h (2 Bft) 97,87 %
20.10.2016 14:02 9,1 C 92 % 1014,6 hPa 0,0 l/m 3,0 km/h (1 Bft) SO 146 0 min 0,000 mm 0,0 UV-I 76 W/m 7,9 C 9,1 C 6,4 km/h (2 Bft) 97,37 %
20.10.2016 14:04 9,1 C 92 % 1014,6 hPa 0,0 l/m 5,6 km/h (1 Bft) S-SO 150 0 min 0,000 mm 0,0 UV-I 76 W/m 7,9 C 9,1 C 8,0 km/h (2 Bft) 100,00 %
20.10.2016 14:06 9,1 C 92 % 1014,7 hPa 0,0 l/m 5,9 km/h (2 Bft) SO 142 0 min 0,000 mm 0,0 UV-I 76 W/m 7,9 C 9,1 C 11,3 km/h (2 Bft) 97,56 %
20.10.2016 14:08 9,1 C 92 % 1014,7 hPa 0,0 l/m 6,8 km/h (2 Bft) SO 130 0 min 0,000 mm 0,0 UV-I 76 W/m 7,9 C 8,8 C 11,3 km/h (2 Bft) 100,00 %
20.10.2016 14:10 9,1 C 92 % 1014,6 hPa 0,0 l/m 4,8 km/h (1 Bft) SO 144 0 min 0,000 mm 0,0 UV-I 76 W/m 7,9 C 9,1 C 8,0 km/h (2 Bft) 97,87 %
20.10.2016 14:12 9,1 C 91 % 1014,5 hPa 0,0 l/m 5,6 km/h (1 Bft) SO 139 0 min 0,000 mm 0,0 UV-I 76 W/m 7,7 C 9,1 C 11,3 km/h (2 Bft) 100,00 %
20.10.2016 14:14 9,1 C 91 % 1014,6 hPa 0,0 l/m 5,0 km/h (1 Bft) SO 138 0 min 0,000 mm 0,0 UV-I 76 W/m 7,7 C 9,1 C 9,7 km/h (2 Bft) 100,00 %
20.10.2016 14:16 9,0 C 89 % 1014,6 hPa 0,0 l/m 5,8 km/h (2 Bft) SO 145 0 min 0,000 mm 0,0 UV-I 76 W/m 7,3 C 9,0 C 11,3 km/h (2 Bft) 100,00 %
20.10.2016 14:18 9,0 C 90 % 1014,6 hPa 0,0 l/m 2,9 km/h (1 Bft) S-SO 154 0 min 0,000 mm 0,0 UV-I 76 W/m 7,4 C 9,0 C 8,0 km/h (2 Bft) 100,00 %
20.10.2016 14:20 9,1 C 90 % 1014,6 hPa 0,0 l/m 2,6 km/h (1 Bft) S-SO 167 0 min 0,000 mm 0,0 UV-I 76 W/m 7,5 C 9,1 C 6,4 km/h (2 Bft) 97,87 %
20.10.2016 14:22 9,1 C 90 % 1014,6 hPa 0,0 l/m 5,4 km/h (1 Bft) SO 145 0 min 0,000 mm 0,0 UV-I 76 W/m 7,5 C 9,1 C 11,3 km/h (2 Bft) 100,00 %
20.10.2016 14:24 9,1 C 90 % 1014,6 hPa 0,0 l/m 3,5 km/h (1 Bft) SO 142 0 min 0,000 mm 0,0 UV-I 76 W/m 7,5 C 9,1 C 4,8 km/h (1 Bft) 100,00 %
20.10.2016 14:26 9,2 C 90 % 1014,6 hPa 0,0 l/m 3,4 km/h (1 Bft) SO 126 0 min 0,000 mm 0,0 UV-I 76 W/m 7,6 C 9,2 C 6,4 km/h (2 Bft) 100,00 %
20.10.2016 14:28 9,2 C 91 % 1014,6 hPa 0,0 l/m 4,1 km/h (1 Bft) O-SO 116 0 min 0,000 mm 0,0 UV-I 76 W/m 7,8 C 9,2 C 6,4 km/h (2 Bft) 95,74 %
20.10.2016 14:30 9,2 C 90 % 1014,6 hPa 0,0 l/m 4,4 km/h (1 Bft) SO 130 0 min 0,000 mm 0,0 UV-I 76 W/m 7,6 C 9,2 C 8,0 km/h (2 Bft) 97,87 %
20.10.2016 14:32 9,3 C 91 % 1014,5 hPa 0,0 l/m 5,3 km/h (1 Bft) O-SO 117 0 min 0,000 mm 0,0 UV-I 76 W/m 7,9 C 9,3 C 9,7 km/h (2 Bft) 98,00 %
20.10.2016 14:34 9,3 C 90 % 1014,5 hPa 0,0 l/m 6,2 km/h (2 Bft) SO 126 0 min 0,000 mm 0,0 UV-I 76 W/m 7,7 C 9,3 C 11,3 km/h (2 Bft) 95,74 %
20.10.2016 14:36 9,3 C 90 % 1014,5 hPa 0,0 l/m 3,9 km/h (1 Bft) SO 128 0 min 0,000 mm 0,0 UV-I 76 W/m 7,7 C 9,3 C 9,7 km/h (2 Bft) 96,00 %
20.10.2016 14:38 9,3 C 90 % 1014,4 hPa 0,0 l/m 1,5 km/h (1 Bft) SO 129 0 min 0,000 mm 0,0 UV-I 76 W/m 7,7 C 9,3 C 4,8 km/h (1 Bft) 97,96 %
20.10.2016 14:40 9,3 C 89 % 1014,4 hPa 0,0 l/m 2,7 km/h (1 Bft) O-SO 113 0 min 0,000 mm 0,0 UV-I 76 W/m 7,6 C 9,3 C 8,0 km/h (2 Bft) 94,74 %
20.10.2016 14:42 9,3 C 89 % 1014,4 hPa 0,0 l/m 3,6 km/h (1 Bft) SO 134 0 min 0,000 mm 0,0 UV-I 76 W/m 7,6 C 9,3 C 6,4 km/h (2 Bft) 98,00 %
20.10.2016 14:44 9,3 C 88 % 1014,4 hPa 0,0 l/m 2,3 km/h (1 Bft) SO 142 0 min 0,000 mm 0,0 UV-I 76 W/m 7,4 C 9,3 C 4,8 km/h (1 Bft) 97,14 %
20.10.2016 14:46 9,3 C 87 % 1014,4 hPa 0,0 l/m 3,6 km/h (1 Bft) SO 142 0 min 0,000 mm 0,0 UV-I 76 W/m 7,2 C 9,3 C 8,0 km/h (2 Bft) 98,11 %
20.10.2016 14:48 9,3 C 88 % 1014,4 hPa 0,0 l/m 0,8 km/h (0 Bft) SO 143 0 min 0,000 mm 0,0 UV-I 76 W/m 7,4 C 9,3 C 3,2 km/h (1 Bft) 98,21 %
20.10.2016 14:50 9,4 C 88 % 1014,4 hPa 0,0 l/m 1,2 km/h (1 Bft) SO 143 0 min 0,000 mm 0,0 UV-I 76 W/m 7,5 C 9,4 C 3,2 km/h (1 Bft) 97,14 %
20.10.2016 14:52 9,4 C 89 % 1014,3 hPa 0,0 l/m 0,8 km/h (0 Bft) SO 143 0 min 0,000 mm 0,0 UV-I 76 W/m 7,7 C 9,4 C 3,2 km/h (1 Bft) 98,21 %
20.10.2016 14:54 9,4 C 87 % 1014,3 hPa 0,0 l/m 0,6 km/h (0 Bft) SO 143 0 min 0,000 mm 0,0 UV-I 76 W/m 7,3 C 9,4 C 3,2 km/h (1 Bft) 96,00 %
20.10.2016 14:56 9,5 C 88 % 1014,3 hPa 0,0 l/m 1,8 km/h (1 Bft) SO 125 0 min 0,000 mm 0,0 UV-I 76 W/m 7,6 C 9,5 C 4,8 km/h (1 Bft) 97,87 %
20.10.2016 14:58 9,6 C 88 % 1014,3 hPa 0,0 l/m 1,4 km/h (1 Bft) SO 125 0 min 0,000 mm 0,0 UV-I 76 W/m 7,7 C 9,6 C 3,2 km/h (1 Bft) 97,22 %
20.10.2016 15:00 9,6 C 89 % 1014,3 hPa 0,0 l/m 1,5 km/h (1 Bft) O-SO 123 0 min 0,000 mm 0,0 UV-I 76 W/m 7,9 C 9,6 C 4,8 km/h (1 Bft) 98,18 %
20.10.2016 15:02 9,6 C 88 % 1014,3 hPa 0,0 l/m 2,6 km/h (1 Bft) O-SO 123 0 min 0,000 mm 0,0 UV-I 76 W/m 7,7 C 9,6 C 4,8 km/h (1 Bft) 97,87 %
20.10.2016 15:04 9,8 C 89 % 1014,2 hPa 0,0 l/m 3,1 km/h (1 Bft) O-SO 121 0 min 0,000 mm 0,0 UV-I 76 W/m 8,1 C 9,8 C 4,8 km/h (1 Bft) 100,00 %
20.10.2016 15:06 9,9 C 87 % 1014,2 hPa 0,0 l/m 2,9 km/h (1 Bft) SO 128 0 min 0,000 mm 0,0 UV-I 76 W/m 7,8 C 9,9 C 4,8 km/h (1 Bft) 98,11 %
20.10.2016 15:08 9,9 C 85 % 1014,2 hPa 0,0 l/m 2,3 km/h (1 Bft) S-SO 147 0 min 0,000 mm 0,0 UV-I 76 W/m 7,5 C 9,9 C 4,8 km/h (1 Bft) 100,00 %
20.10.2016 15:10 9,9 C 87 % 1014,1 hPa 0,0 l/m 2,9 km/h (1 Bft) O-SO 123 0 min 0,000 mm 0,0 UV-I 76 W/m 7,8 C 9,9 C 6,4 km/h (2 Bft) 100,00 %
20.10.2016 15:12 10,0 C 87 % 1014,0 hPa 0,0 l/m 2,1 km/h (1 Bft) S-SO 148 0 min 0,000 mm 0,0 UV-I 76 W/m 7,9 C 10,0 C 4,8 km/h (1 Bft) 100,00 %
20.10.2016 15:14 10,0 C 86 % 1014,1 hPa 0,0 l/m 2,4 km/h (1 Bft) O-SO 103 0 min 0,000 mm 0,0 UV-I 76 W/m 7,8 C 10,0 C 6,4 km/h (2 Bft) 97,73 %
20.10.2016 15:16 10,1 C 86 % 1014,1 hPa 0,0 l/m 6,2 km/h (2 Bft) O-SO 114 0 min 0,000 mm 0,0 UV-I 76 W/m 7,9 C 10,1 C 11,3 km/h (2 Bft) 100,00 %
20.10.2016 15:18 10,2 C 87 % 1014,1 hPa 0,0 l/m 4,4 km/h (1 Bft) S-SO 159 0 min 0,000 mm 0,0 UV-I 76 W/m 8,1 C 10,2 C 6,4 km/h (2 Bft) 100,00 %
20.10.2016 15:20 10,3 C 85 % 1014,1 hPa 0,0 l/m 5,7 km/h (1 Bft) SO 140 0 min 0,000 mm 0,0 UV-I 76 W/m 7,9 C 10,3 C 9,7 km/h (2 Bft) 100,00 %
20.10.2016 15:22 10,3 C 81 % 1014,1 hPa 0,0 l/m 4,4 km/h (1 Bft) SO 137 0 min 0,000 mm 0,0 UV-I 76 W/m 7,2 C 10,3 C 8,0 km/h (2 Bft) 100,00 %
20.10.2016 15:24 10,2 C 80 % 1014,1 hPa 0,0 l/m 4,5 km/h (1 Bft) O-SO 113 0 min 0,000 mm 0,0 UV-I 76 W/m 6,9 C 10,2 C 8,0 km/h (2 Bft) 100,00 %
20.10.2016 15:26 10,2 C 80 % 1014,1 hPa 0,0 l/m 2,4 km/h (1 Bft) S-SO 159 0 min 0,000 mm 0,0 UV-I 76 W/m 6,9 C 10,2 C 4,8 km/h (1 Bft) 100,00 %
20.10.2016 15:28 10,3 C 81 % 1014,1 hPa 0,0 l/m 4,1 km/h (1 Bft) O-SO 107 0 min 0,000 mm 0,0 UV-I 76 W/m 7,2 C 10,3 C 9,7 km/h (2 Bft) 97,87 %
20.10.2016 15:30 10,3 C 81 % 1014,1 hPa 0,0 l/m 4,5 km/h (1 Bft) SO 136 0 min 0,000 mm 0,0 UV-I 76 W/m 7,2 C 10,3 C 11,3 km/h (2 Bft) 100,00 %
20.10.2016 15:32 10,2 C 79 % 1014,1 hPa 0,0 l/m 5,7 km/h (1 Bft) SO 142 0 min 0,000 mm 0,0 UV-I 76 W/m 6,7 C 10,2 C 9,7 km/h (2 Bft) 100,00 %
20.10.2016 15:34 10,1 C 79 % 1014,1 hPa 0,0 l/m 4,5 km/h (1 Bft) O-SO 118 0 min 0,000 mm 0,0 UV-I 76 W/m 6,6 C 10,1 C 6,4 km/h (2 Bft) 98,11 %
20.10.2016 15:36 10,1 C 80 % 1014,2 hPa 0,0 l/m 5,7 km/h (1 Bft) O 98 0 min 0,000 mm 0,0 UV-I 76 W/m 6,8 C 10,1 C 9,7 km/h (2 Bft) 100,00 %
20.10.2016 15:38 10,0 C 81 % 1014,2 hPa 0,0 l/m 6,7 km/h (2 Bft) SO 140 0 min 0,000 mm 0,0 UV-I 76 W/m 6,9 C 9,8 C 11,3 km/h (2 Bft) 100,00 %
20.10.2016 15:40 10,0 C 81 % 1014,2 hPa 0,0 l/m 5,1 km/h (1 Bft) O-SO 115 0 min 0,000 mm 0,0 UV-I 76 W/m 6,9 C 10,0 C 8,0 km/h (2 Bft) 97,44 %
20.10.2016 15:42 10,0 C 82 % 1014,1 hPa 0,0 l/m 5,4 km/h (1 Bft) O-SO 113 0 min 0,000 mm 0,0 UV-I 76 W/m 7,1 C 10,0 C 6,4 km/h (2 Bft) 100,00 %
20.10.2016 15:44 10,1 C 83 % 1014,1 hPa 0,0 l/m 3,8 km/h (1 Bft) O-SO 111 0 min 0,000 mm 0,0 UV-I 76 W/m 7,3 C 10,1 C 4,8 km/h (1 Bft) 100,00 %
20.10.2016 15:46 10,1 C 83 % 1014,1 hPa 0,0 l/m 3,6 km/h (1 Bft) SO 146 0 min 0,000 mm 0,0 UV-I 76 W/m 7,3 C 10,1 C 6,4 km/h (2 Bft) 98,08 %
20.10.2016 15:48 10,1 C 81 % 1014,1 hPa 0,0 l/m 1,6 km/h (1 Bft) SO 138 0 min 0,000 mm 0,0 UV-I 76 W/m 7,0 C 10,1 C 4,8 km/h (1 Bft) 100,00 %
20.10.2016 15:50 10,1 C 80 % 1014,1 hPa 0,0 l/m 5,4 km/h (1 Bft) O-SO 117 0 min 0,000 mm 0,0 UV-I 76 W/m 6,8 C 10,1 C 9,7 km/h (2 Bft) 98,11 %
20.10.2016 15:52 10,2 C 80 % 1014,1 hPa 0,0 l/m 4,7 km/h (1 Bft) O-SO 105 0 min 0,000 mm 0,0 UV-I 76 W/m 6,9 C 10,2 C 11,3 km/h (2 Bft) 100,00 %
20.10.2016 15:54 10,2 C 80 % 1014,1 hPa 0,0 l/m 6,5 km/h (2 Bft) O-SO 113 0 min 0,000 mm 0,0 UV-I 76 W/m 6,9 C 10,2 C 11,3 km/h (2 Bft) 100,00 %
20.10.2016 15:56 10,3 C 81 % 1014,0 hPa 0,0 l/m 4,8 km/h (1 Bft) O-SO 118 0 min 0,000 mm 0,0 UV-I 76 W/m 7,2 C 10,3 C 6,4 km/h (2 Bft) 100,00 %
20.10.2016 15:58 10,3 C 79 % 1014,0 hPa 0,0 l/m 2,4 km/h (1 Bft) O-SO 113 0 min 0,000 mm 0,0 UV-I 76 W/m 6,8 C 10,3 C 4,8 km/h (1 Bft) 100,00 %
20.10.2016 16:00 10,4 C 80 % 1013,9 hPa 0,0 l/m 5,4 km/h (1 Bft) O-SO 107 0 min 0,000 mm 0,0 UV-I 76 W/m 7,1 C 10,4 C 9,7 km/h (2 Bft) 100,00 %
20.10.2016 16:02 10,4 C 79 % 1013,9 hPa 0,0 l/m 5,2 km/h (1 Bft) O-SO 103 0 min 0,000 mm 0,0 UV-I 76 W/m 6,9 C 10,4 C 11,3 km/h (2 Bft) 97,87 %
20.10.2016 16:04 10,3 C 78 % 1013,9 hPa 0,0 l/m 6,2 km/h (2 Bft) S-SO 152 0 min 0,000 mm 0,0 UV-I 76 W/m 6,6 C 10,3 C 11,3 km/h (2 Bft) 100,00 %
20.10.2016 16:06 10,2 C 78 % 1013,9 hPa 0,0 l/m 4,3 km/h (1 Bft) O-SO 115 0 min 0,000 mm 0,0 UV-I 76 W/m 6,5 C 10,2 C 6,4 km/h (2 Bft) 100,00 %
20.10.2016 16:08 10,2 C 78 % 1014,0 hPa 0,0 l/m 4,0 km/h (1 Bft) SO 134 0 min 0,000 mm 0,0 UV-I 76 W/m 6,5 C 10,2 C 6,4 km/h (2 Bft) 100,00 %
20.10.2016 16:10 10,1 C 78 % 1013,9 hPa 0,0 l/m 3,3 km/h (1 Bft) O-SO 122 0 min 0,000 mm 0,0 UV-I 76 W/m 6,4 C 10,1 C 4,8 km/h (1 Bft) 100,00 %
20.10.2016 16:12 10,1 C 80 % 1014,0 hPa 0,0 l/m 3,4 km/h (1 Bft) O-SO 122 0 min 0,000 mm 0,0 UV-I 76 W/m 6,8 C 10,1 C 4,8 km/h (1 Bft) 100,00 %
20.10.2016 16:14 10,1 C 81 % 1014,0 hPa 0,0 l/m 2,8 km/h (1 Bft) O-SO 121 0 min 0,000 mm 0,0 UV-I 76 W/m 7,0 C 10,1 C 4,8 km/h (1 Bft) 100,00 %
20.10.2016 16:16 10,1 C 81 % 1014,0 hPa 0,0 l/m 3,2 km/h (1 Bft) O 99 0 min 0,000 mm 0,0 UV-I 76 W/m 7,0 C 10,1 C 4,8 km/h (1 Bft) 100,00 %
20.10.2016 16:18 10,1 C 80 % 1014,0 hPa 0,0 l/m 2,9 km/h (1 Bft) O 96 0 min 0,000 mm 0,0 UV-I 76 W/m 6,8 C 10,1 C 4,8 km/h (1 Bft) 100,00 %
20.10.2016 16:20 10,1 C 80 % 1014,0 hPa 0,0 l/m 3,4 km/h (1 Bft) O-SO 106 0 min 0,000 mm 0,0 UV-I 76 W/m 6,8 C 10,1 C 6,4 km/h (2 Bft) 100,00 %
20.10.2016 16:22 10,2 C 80 % 1014,0 hPa 0,0 l/m 3,7 km/h (1 Bft) O-SO 105 0 min 0,000 mm 0,0 UV-I 76 W/m 6,9 C 10,2 C 6,4 km/h (2 Bft) 100,00 %
20.10.2016 16:24 10,1 C 77 % 1013,9 hPa 0,0 l/m 2,7 km/h (1 Bft) O 89 0 min 0,000 mm 0,0 UV-I 76 W/m 6,3 C 10,1 C 6,4 km/h (2 Bft) 95,92 %
20.10.2016 16:26 10,1 C 79 % 1013,9 hPa 0,0 l/m 1,5 km/h (1 Bft) O 89 0 min 0,000 mm 0,0 UV-I 76 W/m 6,6 C 10,1 C 4,8 km/h (1 Bft) 100,00 %
20.10.2016 16:28 10,1 C 79 % 1013,9 hPa 0,0 l/m 2,7 km/h (1 Bft) O 89 0 min 0,000 mm 0,0 UV-I 76 W/m 6,6 C 10,1 C 4,8 km/h (1 Bft) 100,00 %
20.10.2016 16:30 10,1 C 79 % 1013,9 hPa 0,0 l/m 2,9 km/h (1 Bft) O 89 0 min 0,000 mm 0,0 UV-I 76 W/m 6,6 C 10,1 C 4,8 km/h (1 Bft) 100,00 %
20.10.2016 16:32 10,1 C 80 % 1013,9 hPa 0,0 l/m 2,1 km/h (1 Bft) O 89 0 min 0,000 mm 0,0 UV-I 76 W/m 6,8 C 10,1 C 4,8 km/h (1 Bft) 96,00 %
20.10.2016 16:34 10,1 C 80 % 1013,8 hPa 0,0 l/m 2,6 km/h (1 Bft) O 87 0 min 0,000 mm 0,0 UV-I 76 W/m 6,8 C 10,1 C 4,8 km/h (1 Bft) 100,00 %
20.10.2016 16:36 10,1 C 83 % 1013,8 hPa 0,0 l/m 4,8 km/h (1 Bft) O-NO 78 0 min 0,000 mm 0,0 UV-I 76 W/m 7,3 C 10,1 C 6,4 km/h (2 Bft) 100,00 %
20.10.2016 16:38 10,1 C 83 % 1013,9 hPa 0,0 l/m 3,3 km/h (1 Bft) O-NO 78 0 min 0,000 mm 0,0 UV-I 76 W/m 7,3 C 10,1 C 6,4 km/h (2 Bft) 98,00 %
20.10.2016 16:40 10,1 C 84 % 1013,8 hPa 0,0 l/m 4,7 km/h (1 Bft) O-NO 63 0 min 0,000 mm 0,0 UV-I 76 W/m 7,5 C 10,1 C 6,4 km/h (2 Bft) 97,56 %
20.10.2016 16:42 10,1 C 84 % 1013,8 hPa 0,0 l/m 5,3 km/h (1 Bft) O-NO 74 0 min 0,000 mm 0,0 UV-I 76 W/m 7,5 C 10,1 C 8,0 km/h (2 Bft) 97,87 %
20.10.2016 16:44 10,0 C 84 % 1013,8 hPa 0,0 l/m 5,4 km/h (1 Bft) O-NO 70 0 min 0,000 mm 0,0 UV-I 76 W/m 7,4 C 10,0 C 8,0 km/h (2 Bft) 97,87 %
20.10.2016 16:46 9,9 C 84 % 1013,8 hPa 0,0 l/m 5,5 km/h (1 Bft) O 85 0 min 0,000 mm 0,0 UV-I 76 W/m 7,3 C 9,9 C 8,0 km/h (2 Bft) 97,56 %
20.10.2016 16:48 9,9 C 84 % 1013,8 hPa 0,0 l/m 4,0 km/h (1 Bft) O-NO 69 0 min 0,000 mm 0,0 UV-I 76 W/m 7,3 C 9,9 C 6,4 km/h (2 Bft) 98,11 %
20.10.2016 16:50 9,8 C 84 % 1013,8 hPa 0,0 l/m 4,9 km/h (1 Bft) O 79 0 min 0,000 mm 0,0 UV-I 76 W/m 7,2 C 9,8 C 6,4 km/h (2 Bft) 98,00 %
20.10.2016 16:52 9,8 C 84 % 1013,8 hPa 0,0 l/m 5,0 km/h (1 Bft) O-NO 78 0 min 0,000 mm 0,0 UV-I 76 W/m 7,2 C 9,8 C 8,0 km/h (2 Bft) 96,00 %
20.10.2016 16:54 9,7 C 84 % 1013,9 hPa 0,0 l/m 4,0 km/h (1 Bft) O 87 0 min 0,000 mm 0,0 UV-I 76 W/m 7,1 C 9,7 C 6,4 km/h (2 Bft) 93,62 %
20.10.2016 16:56 9,6 C 85 % 1013,9 hPa 0,0 l/m 4,9 km/h (1 Bft) O 80 0 min 0,000 mm 0,0 UV-I 76 W/m 7,2 C 9,6 C 6,4 km/h (2 Bft) 100,00 %
20.10.2016 16:58 9,5 C 85 % 1013,9 hPa 0,0 l/m 4,8 km/h (1 Bft) O-NO 66 0 min 0,000 mm 0,0 UV-I 76 W/m 7,1 C 9,5 C 8,0 km/h (2 Bft) 96,36 %
20.10.2016 17:00 9,5 C 85 % 1013,9 hPa 0,0 l/m 5,2 km/h (1 Bft) O-NO 67 0 min 0,000 mm 0,0 UV-I 76 W/m 7,1 C 9,5 C 6,4 km/h (2 Bft) 96,00 %
20.10.2016 17:02 9,4 C 85 % 1013,9 hPa 0,0 l/m 5,3 km/h (1 Bft) O-NO 67 0 min 0,000 mm 0,0 UV-I 76 W/m 7,0 C 9,4 C 6,4 km/h (2 Bft) 97,44 %
20.10.2016 17:04 9,4 C 85 % 1013,9 hPa 0,0 l/m 5,4 km/h (1 Bft) O 80 0 min 0,000 mm 0,0 UV-I 76 W/m 7,0 C 9,4 C 6,4 km/h (2 Bft) 97,87 %
20.10.2016 17:06 9,3 C 86 % 1013,9 hPa 0,0 l/m 5,9 km/h (2 Bft) O-NO 78 0 min 0,000 mm 0,0 UV-I 76 W/m 7,1 C 9,3 C 8,0 km/h (2 Bft) 98,00 %
20.10.2016 17:08 9,2 C 86 % 1013,8 hPa 0,0 l/m 6,0 km/h (2 Bft) O-NO 78 0 min 0,000 mm 0,0 UV-I 76 W/m 7,0 C 9,2 C 8,0 km/h (2 Bft) 95,74 %
20.10.2016 17:10 9,2 C 87 % 1013,9 hPa 0,0 l/m 6,6 km/h (2 Bft) O 82 2 min 0,000 mm 0,0 UV-I 76 W/m 7,2 C 9,1 C 9,7 km/h (2 Bft) 96,00 %
20.10.2016 17:12 9,1 C 87 % 1013,8 hPa 0,0 l/m 7,4 km/h (2 Bft) O 95 2 min 0,000 mm 0,0 UV-I 76 W/m 7,1 C 8,3 C 11,3 km/h (2 Bft) 100,00 %
20.10.2016 17:14 9,1 C 87 % 1013,8 hPa 0,0 l/m 7,6 km/h (2 Bft) O-NO 70 2 min 0,000 mm 0,0 UV-I 76 W/m 7,1 C 8,2 C 12,9 km/h (3 Bft) 96,23 %
20.10.2016 17:16 9,0 C 87 % 1013,8 hPa 0,0 l/m 7,8 km/h (2 Bft) O 90 2 min 0,000 mm 0,0 UV-I 76 W/m 7,0 C 7,9 C 11,3 km/h (2 Bft) 97,56 %
20.10.2016 17:18 8,9 C 86 % 1013,8 hPa 0,0 l/m 6,4 km/h (2 Bft) O 80 2 min 0,000 mm 0,0 UV-I 76 W/m 6,7 C 8,9 C 9,7 km/h (2 Bft) 98,00 %
20.10.2016 17:20 8,9 C 86 % 1013,8 hPa 0,0 l/m 6,0 km/h (2 Bft) O 96 2 min 0,000 mm 0,0 UV-I 76 W/m 6,7 C 8,9 C 8,0 km/h (2 Bft) 98,00 %
20.10.2016 17:22 8,8 C 86 % 1013,8 hPa 0,0 l/m 5,7 km/h (1 Bft) O 90 2 min 0,000 mm 0,0 UV-I 76 W/m 6,6 C 8,8 C 9,7 km/h (2 Bft) 97,87 %
20.10.2016 17:24 8,8 C 86 % 1013,9 hPa 0,0 l/m 5,9 km/h (2 Bft) O-NO 76 2 min 0,000 mm 0,0 UV-I 76 W/m 6,6 C 8,8 C 11,3 km/h (2 Bft) 97,87 %
20.10.2016 17:26 8,8 C 86 % 1013,9 hPa 0,0 l/m 5,2 km/h (1 Bft) O 90 2 min 0,000 mm 0,0 UV-I 76 W/m 6,6 C 8,8 C 6,4 km/h (2 Bft) 98,00 %
20.10.2016 17:28 8,8 C 86 % 1013,9 hPa 0,0 l/m 5,8 km/h (2 Bft) O 82 2 min 0,000 mm 0,0 UV-I 76 W/m 6,6 C 8,8 C 8,0 km/h (2 Bft) 97,37 %
20.10.2016 17:30 8,7 C 86 % 1013,9 hPa 0,0 l/m 5,2 km/h (1 Bft) O 82 2 min 0,000 mm 0,0 UV-I 76 W/m 6,5 C 8,7 C 8,0 km/h (2 Bft) 97,87 %
20.10.2016 17:32 8,7 C 87 % 1013,9 hPa 0,0 l/m 5,7 km/h (1 Bft) O-NO 76 2 min 0,000 mm 0,0 UV-I 76 W/m 6,7 C 8,7 C 9,7 km/h (2 Bft) 100,00 %
20.10.2016 17:34 8,7 C 88 % 1013,9 hPa 0,0 l/m 6,6 km/h (2 Bft) O 91 2 min 0,000 mm 0,0 UV-I 76 W/m 6,8 C 8,6 C 9,7 km/h (2 Bft) 100,00 %
20.10.2016 17:36 8,6 C 88 % 1013,9 hPa 0,0 l/m 6,4 km/h (2 Bft) O 81 2 min 0,000 mm 0,0 UV-I 76 W/m 6,7 C 8,6 C 11,3 km/h (2 Bft) 100,00 %
20.10.2016 17:38 8,6 C 88 % 1013,9 hPa 0,0 l/m 5,4 km/h (1 Bft) O 86 2 min 0,000 mm 0,0 UV-I 76 W/m 6,7 C 8,6 C 8,0 km/h (2 Bft) 96,00 %
20.10.2016 17:40 8,6 C 88 % 1013,8 hPa 0,0 l/m 6,1 km/h (2 Bft) O-NO 77 2 min 0,000 mm 0,0 UV-I 76 W/m 6,7 C 8,6 C 11,3 km/h (2 Bft) 100,00 %
20.10.2016 17:42 8,6 C 88 % 1013,8 hPa 0,0 l/m 7,9 km/h (2 Bft) O-NO 74 2 min 0,000 mm 0,0 UV-I 76 W/m 6,7 C 7,5 C 12,9 km/h (3 Bft) 95,24 %
20.10.2016 17:44 8,6 C 88 % 1013,9 hPa 0,0 l/m 8,4 km/h (2 Bft) O 82 2 min 0,000 mm 0,0 UV-I 76 W/m 6,7 C 7,1 C 12,9 km/h (3 Bft) 100,00 %
20.10.2016 17:46 8,6 C 88 % 1013,9 hPa 0,0 l/m 7,1 km/h (2 Bft) O-NO 78 2 min 0,000 mm 0,0 UV-I 76 W/m 6,7 C 8,1 C 11,3 km/h (2 Bft) 100,00 %
20.10.2016 17:48 8,6 C 88 % 1013,8 hPa 0,0 l/m 8,2 km/h (2 Bft) O 84 2 min 0,000 mm 0,0 UV-I 76 W/m 6,7 C 7,2 C 12,9 km/h (3 Bft) 100,00 %
20.10.2016 17:50 8,6 C 88 % 1013,8 hPa 0,0 l/m 7,6 km/h (2 Bft) O-NO 76 2 min 0,000 mm 0,0 UV-I 76 W/m 6,7 C 7,7 C 11,3 km/h (2 Bft) 100,00 %
20.10.2016 17:52 8,5 C 88 % 1013,7 hPa 0,0 l/m 7,2 km/h (2 Bft) O 80 2 min 0,000 mm 0,0 UV-I 76 W/m 6,6 C 7,9 C 11,3 km/h (2 Bft) 100,00 %
20.10.2016 17:54 8,4 C 88 % 1013,7 hPa 0,0 l/m 9,3 km/h (2 Bft) O-NO 71 2 min 0,000 mm 0,0 UV-I 76 W/m 6,5 C 6,3 C 12,9 km/h (3 Bft) 100,00 %
20.10.2016 17:56 8,3 C 88 % 1013,7 hPa 0,0 l/m 8,9 km/h (2 Bft) O 93 0 min 0,000 mm 0,0 UV-I 76 W/m 6,4 C 6,4 C 12,9 km/h (3 Bft) 100,00 %
20.10.2016 17:58 8,3 C 89 % 1013,7 hPa 0,0 l/m 8,9 km/h (2 Bft) O-NO 76 0 min 0,000 mm 0,0 UV-I 76 W/m 6,6 C 6,4 C 11,3 km/h (2 Bft) 97,87 %
20.10.2016 18:00 8,3 C 89 % 1013,7 hPa 0,0 l/m 8,6 km/h (2 Bft) O-NO 70 0 min 0,000 mm 0,0 UV-I 76 W/m 6,6 C 6,6 C 12,9 km/h (3 Bft) 100,00 %
20.10.2016 18:02 8,2 C 90 % 1013,7 hPa 0,0 l/m 5,7 km/h (1 Bft) O-NO 69 0 min 0,000 mm 0,0 UV-I 76 W/m 6,7 C 8,2 C 8,0 km/h (2 Bft) 100,00 %
20.10.2016 18:04 8,1 C 90 % 1013,7 hPa 0,0 l/m 7,9 km/h (2 Bft) O 85 0 min 0,000 mm 0,0 UV-I 76 W/m 6,6 C 6,9 C 12,9 km/h (3 Bft) 97,87 %
20.10.2016 18:06 8,1 C 90 % 1013,7 hPa 0,0 l/m 6,9 km/h (2 Bft) O-NO 78 0 min 0,000 mm 0,0 UV-I 76 W/m 6,6 C 7,7 C 12,9 km/h (3 Bft) 100,00 %
20.10.2016 18:08 8,0 C 90 % 1013,7 hPa 0,0 l/m 7,0 km/h (2 Bft) O 86 0 min 0,000 mm 0,0 UV-I 76 W/m 6,5 C 7,5 C 12,9 km/h (3 Bft) 100,00 %
20.10.2016 18:10 8,0 C 90 % 1013,7 hPa 0,0 l/m 7,8 km/h (2 Bft) O 83 0 min 0,000 mm 0,0 UV-I 76 W/m 6,5 C 6,9 C 11,3 km/h (2 Bft) 97,87 %
20.10.2016 18:12 7,9 C 90 % 1013,7 hPa 0,0 l/m 8,5 km/h (2 Bft) O-SO 105 0 min 0,000 mm 0,0 UV-I 76 W/m 6,4 C 6,3 C 11,3 km/h (2 Bft) 100,00 %
20.10.2016 18:14 7,9 C 90 % 1013,6 hPa 0,0 l/m 8,3 km/h (2 Bft) O 86 0 min 0,000 mm 0,0 UV-I 76 W/m 6,4 C 6,4 C 12,9 km/h (3 Bft) 95,12 %
20.10.2016 18:16 7,9 C 91 % 1013,7 hPa 0,0 l/m 7,5 km/h (2 Bft) O 94 0 min 0,000 mm 0,0 UV-I 76 W/m 6,5 C 7,0 C 12,9 km/h (3 Bft) 100,00 %
20.10.2016 18:18 7,8 C 91 % 1013,7 hPa 0,0 l/m 9,0 km/h (2 Bft) O 90 0 min 0,000 mm 0,0 UV-I 76 W/m 6,4 C 5,8 C 12,9 km/h (3 Bft) 100,00 %
20.10.2016 18:20 7,8 C 91 % 1013,7 hPa 0,0 l/m 5,9 km/h (2 Bft) O 86 0 min 0,000 mm 0,0 UV-I 0 W/m 6,4 C 7,8 C 11,3 km/h (2 Bft) 100,00 %
20.10.2016 18:22 7,8 C 91 % 1013,7 hPa 0,0 l/m 5,9 km/h (2 Bft) O-NO 77 0 min 0,000 mm 0,0 UV-I 0 W/m 6,4 C 7,8 C 11,3 km/h (2 Bft) 100,00 %
20.10.2016 18:24 7,8 C 91 % 1013,7 hPa 0,0 l/m 6,1 km/h (2 Bft) O 90 0 min 0,000 mm 0,0 UV-I 0 W/m 6,4 C 7,8 C 11,3 km/h (2 Bft) 100,00 %
20.10.2016 18:26 7,8 C 91 % 1013,7 hPa 0,0 l/m 7,5 km/h (2 Bft) O 82 0 min 0,000 mm 0,0 UV-I 0 W/m 6,4 C 6,9 C 11,3 km/h (2 Bft) 100,00 %
20.10.2016 18:28 7,7 C 91 % 1013,6 hPa 0,0 l/m 7,3 km/h (2 Bft) O 96 0 min 0,000 mm 0,0 UV-I 0 W/m 6,3 C 7,0 C 11,3 km/h (2 Bft) 100,00 %
20.10.2016 18:30 7,7 C 91 % 1013,7 hPa 0,0 l/m 6,6 km/h (2 Bft) O 84 0 min 0,000 mm 0,0 UV-I 0 W/m 6,3 C 7,6 C 11,3 km/h (2 Bft) 98,00 %
20.10.2016 18:32 7,7 C 91 % 1013,7 hPa 0,0 l/m 8,9 km/h (2 Bft) O 80 0 min 0,000 mm 0,0 UV-I 0 W/m 6,3 C 5,8 C 12,9 km/h (3 Bft) 100,00 %
20.10.2016 18:34 7,7 C 91 % 1013,7 hPa 0,0 l/m 8,4 km/h (2 Bft) O-SO 106 0 min 0,000 mm 0,0 UV-I 0 W/m 6,3 C 6,1 C 12,9 km/h (3 Bft) 100,00 %
20.10.2016 18:36 7,6 C 91 % 1013,7 hPa 0,0 l/m 7,0 km/h (2 Bft) O 84 0 min 0,000 mm 0,0 UV-I 0 W/m 6,2 C 7,1 C 11,3 km/h (2 Bft) 100,00 %
20.10.2016 18:38 7,6 C 91 % 1013,7 hPa 0,0 l/m 7,5 km/h (2 Bft) O-SO 121 0 min 0,000 mm 0,0 UV-I 0 W/m 6,2 C 6,7 C 12,9 km/h (3 Bft) 100,00 %
20.10.2016 18:40 7,6 C 91 % 1013,7 hPa 0,0 l/m 7,6 km/h (2 Bft) O-NO 77 0 min 0,000 mm 0,0 UV-I 0 W/m 6,2 C 6,6 C 12,9 km/h (3 Bft) 100,00 %
20.10.2016 18:42 7,5 C 91 % 1013,7 hPa 0,0 l/m 6,2 km/h (2 Bft) O-NO 72 0 min 0,000 mm 0,0 UV-I 0 W/m 6,1 C 7,5 C 11,3 km/h (2 Bft) 100,00 %
20.10.2016 18:44 7,4 C 91 % 1013,6 hPa 0,0 l/m 8,9 km/h (2 Bft) O 86 0 min 0,000 mm 0,0 UV-I 0 W/m 6,0 C 5,5 C 12,9 km/h (3 Bft) 100,00 %
20.10.2016 18:46 7,4 C 92 % 1013,7 hPa 0,0 l/m 7,1 km/h (2 Bft) O-NO 74 0 min 0,000 mm 0,0 UV-I 0 W/m 6,2 C 6,8 C 11,3 km/h (2 Bft) 100,00 %
20.10.2016 18:48 7,4 C 92 % 1013,7 hPa 0,0 l/m 6,5 km/h (2 Bft) O 92 0 min 0,000 mm 0,0 UV-I 0 W/m 6,2 C 7,3 C 9,7 km/h (2 Bft) 98,00 %
20.10.2016 18:50 7,3 C 92 % 1013,7 hPa 0,0 l/m 5,0 km/h (1 Bft) O 98 0 min 0,000 mm 0,0 UV-I 0 W/m 6,1 C 7,3 C 9,7 km/h (2 Bft) 100,00 %
20.10.2016 18:52 7,3 C 92 % 1013,7 hPa 0,0 l/m 5,5 km/h (1 Bft) O-NO 67 0 min 0,000 mm 0,0 UV-I 0 W/m 6,1 C 7,3 C 9,7 km/h (2 Bft) 100,00 %
20.10.2016 18:54 7,3 C 92 % 1013,7 hPa 0,0 l/m 7,3 km/h (2 Bft) O 90 0 min 0,000 mm 0,0 UV-I 0 W/m 6,1 C 6,6 C 11,3 km/h (2 Bft) 98,00 %
20.10.2016 18:56 7,2 C 92 % 1013,7 hPa 0,0 l/m 6,9 km/h (2 Bft) O-NO 74 0 min 0,000 mm 0,0 UV-I 0 W/m 6,0 C 6,8 C 9,7 km/h (2 Bft) 100,00 %
20.10.2016 18:59 7,2 C 92 % 1013,8 hPa 0,0 l/m 5,9 km/h (2 Bft) O-NO 67 0 min 0,000 mm 0,0 UV-I 0 W/m 6,0 C 7,2 C 8,0 km/h (2 Bft) 100,00 %
20.10.2016 19:00 7,2 C 92 % 1013,8 hPa 0,0 l/m 6,6 km/h (2 Bft) O 100 0 min 0,000 mm 0,0 UV-I 0 W/m 6,0 C 7,1 C 9,7 km/h (2 Bft) 100,00 %
20.10.2016 19:02 7,2 C 92 % 1013,7 hPa 0,0 l/m 5,8 km/h (2 Bft) O-NO 75 0 min 0,000 mm 0,0 UV-I 0 W/m 6,0 C 7,2 C 9,7 km/h (2 Bft) 100,00 %
20.10.2016 19:04 7,1 C 93 % 1013,8 hPa 0,0 l/m 5,7 km/h (1 Bft) O 96 0 min 0,000 mm 0,0 UV-I 0 W/m 6,0 C 7,1 C 8,0 km/h (2 Bft) 100,00 %
20.10.2016 19:06 7,1 C 93 % 1013,8 hPa 0,0 l/m 4,8 km/h (1 Bft) O-SO 123 0 min 0,000 mm 0,0 UV-I 0 W/m 6,0 C 7,1 C 11,3 km/h (2 Bft) 100,00 %
20.10.2016 19:08 6,9 C 93 % 1013,8 hPa 0,0 l/m 3,1 km/h (1 Bft) O-SO 107 0 min 0,000 mm 0,0 UV-I 0 W/m 5,8 C 6,9 C 4,8 km/h (1 Bft) 100,00 %
20.10.2016 19:10 6,9 C 93 % 1013,8 hPa 0,0 l/m 4,5 km/h (1 Bft) O 101 0 min 0,000 mm 0,0 UV-I 0 W/m 5,8 C 6,9 C 6,4 km/h (2 Bft) 97,87 %
20.10.2016 19:12 6,8 C 93 % 1013,8 hPa 0,0 l/m 4,7 km/h (1 Bft) O 88 0 min 0,000 mm 0,0 UV-I 0 W/m 5,7 C 6,8 C 6,4 km/h (2 Bft) 95,45 %
20.10.2016 19:14 6,7 C 94 % 1013,8 hPa 0,0 l/m 4,8 km/h (1 Bft) O 94 0 min 0,000 mm 0,0 UV-I 0 W/m 5,8 C 6,7 C 9,7 km/h (2 Bft) 100,00 %
20.10.2016 19:16 6,7 C 94 % 1013,8 hPa 0,0 l/m 4,5 km/h (1 Bft) O 84 0 min 0,000 mm 0,0 UV-I 0 W/m 5,8 C 6,7 C 8,0 km/h (2 Bft) 94,00 %
20.10.2016 19:19 6,7 C 94 % 1013,8 hPa 0,0 l/m 2,8 km/h (1 Bft) O 84 0 min 0,000 mm 0,0 UV-I 0 W/m 5,8 C 6,7 C 4,8 km/h (1 Bft) 98,68 %
20.10.2016 19:20 6,7 C 94 % 1013,8 hPa 0,0 l/m 3,3 km/h (1 Bft) O 84 0 min 0,000 mm 0,0 UV-I 0 W/m 5,8 C 6,7 C 4,8 km/h (1 Bft) 96,30 %
20.10.2016 19:22 6,6 C 94 % 1013,8 hPa 0,0 l/m 4,0 km/h (1 Bft) O 97 0 min 0,000 mm 0,0 UV-I 0 W/m 5,7 C 6,6 C 6,4 km/h (2 Bft) 97,14 %
20.10.2016 19:24 6,6 C 94 % 1013,8 hPa 0,0 l/m 4,2 km/h (1 Bft) O 97 0 min 0,000 mm 0,0 UV-I 0 W/m 5,7 C 6,6 C 6,4 km/h (2 Bft) 96,43 %
20.10.2016 19:26 6,6 C 94 % 1013,8 hPa 0,0 l/m 3,7 km/h (1 Bft) O-NO 74 0 min 0,000 mm 0,0 UV-I 0 W/m 5,7 C 6,6 C 6,4 km/h (2 Bft) 98,00 %
20.10.2016 19:28 6,7 C 94 % 1013,8 hPa 0,0 l/m 3,5 km/h (1 Bft) O-NO 74 0 min 0,000 mm 0,0 UV-I 0 W/m 5,8 C 6,7 C 4,8 km/h (1 Bft) 91,49 %
20.10.2016 19:30 6,7 C 94 % 1013,8 hPa 0,0 l/m 3,4 km/h (1 Bft) O 83 0 min 0,000 mm 0,0 UV-I 0 W/m 5,8 C 6,7 C 6,4 km/h (2 Bft) 97,73 %
20.10.2016 19:32 6,7 C 94 % 1013,8 hPa 0,0 l/m 2,2 km/h (1 Bft) O 83 0 min 0,000 mm 0,0 UV-I 0 W/m 5,8 C 6,7 C 3,2 km/h (1 Bft) 100,00 %
20.10.2016 19:34 6,6 C 94 % 1013,8 hPa 0,0 l/m 2,1 km/h (1 Bft) O 83 0 min 0,000 mm 0,0 UV-I 0 W/m 5,7 C 6,6 C 3,2 km/h (1 Bft) 93,62 %
20.10.2016 19:36 6,5 C 94 % 1013,8 hPa 0,0 l/m 1,9 km/h (1 Bft) O 83 0 min 0,000 mm 0,0 UV-I 0 W/m 5,6 C 6,5 C 3,2 km/h (1 Bft) 97,92 %
20.10.2016 19:38 6,3 C 93 % 1013,9 hPa 0,0 l/m 1,2 km/h (1 Bft) O 83 0 min 0,000 mm 0,0 UV-I 0 W/m 5,3 C 6,3 C 1,6 km/h (1 Bft) 96,36 %
20.10.2016 19:40 6,1 C 94 % 1013,9 hPa 0,0 l/m 1,4 km/h (1 Bft) O 83 0 min 0,000 mm 0,0 UV-I 0 W/m 5,2 C 6,1 C 3,2 km/h (1 Bft) 95,74 %
20.10.2016 19:42 5,9 C 94 % 1013,9 hPa 0,0 l/m 1,2 km/h (1 Bft) O 83 0 min 0,000 mm 0,0 UV-I 0 W/m 5,0 C 5,9 C 3,2 km/h (1 Bft) 97,87 %
20.10.2016 19:44 5,8 C 94 % 1013,9 hPa 0,0 l/m 0,0 km/h (0 Bft) O 83 0 min 0,000 mm 0,0 UV-I 0 W/m 4,9 C 5,8 C 0,0 km/h (0 Bft) 97,44 %
20.10.2016 19:46 5,6 C 94 % 1013,9 hPa 0,0 l/m 0,0 km/h (0 Bft) O 83 0 min 0,000 mm 0,0 UV-I 0 W/m 4,7 C 5,6 C 1,6 km/h (1 Bft) 97,87 %
20.10.2016 19:48 5,7 C 95 % 1013,9 hPa 0,0 l/m 1,9 km/h (1 Bft) O 83 0 min 0,000 mm 0,0 UV-I 0 W/m 5,0 C 5,7 C 3,2 km/h (1 Bft) 100,00 %
20.10.2016 19:50 5,7 C 95 % 1013,9 hPa 0,0 l/m 1,4 km/h (1 Bft) O 83 0 min 0,000 mm 0,0 UV-I 0 W/m 5,0 C 5,7 C 3,2 km/h (1 Bft) 100,00 %
20.10.2016 19:52 5,7 C 95 % 1013,9 hPa 0,0 l/m 1,7 km/h (1 Bft) O 83 0 min 0,000 mm 0,0 UV-I 0 W/m 5,0 C 5,7 C 3,2 km/h (1 Bft) 98,00 %
20.10.2016 19:54 5,7 C 95 % 1013,8 hPa 0,0 l/m 2,7 km/h (1 Bft) O 83 0 min 0,000 mm 0,0 UV-I 0 W/m 5,0 C 5,7 C 4,8 km/h (1 Bft) 97,14 %
20.10.2016 19:56 5,7 C 95 % 1013,8 hPa 0,0 l/m 3,6 km/h (1 Bft) O-NO 76 0 min 0,000 mm 0,0 UV-I 0 W/m 5,0 C 5,7 C 4,8 km/h (1 Bft) 100,00 %
20.10.2016 19:58 5,8 C 96 % 1013,8 hPa 0,0 l/m 3,4 km/h (1 Bft) O-NO 76 0 min 0,000 mm 0,0 UV-I 0 W/m 5,2 C 5,8 C 4,8 km/h (1 Bft) 98,00 %
20.10.2016 20:00 5,9 C 96 % 1013,8 hPa 0,0 l/m 4,1 km/h (1 Bft) O-NO 76 0 min 0,000 mm 0,0 UV-I 0 W/m 5,3 C 5,9 C 4,8 km/h (1 Bft) 100,00 %
20.10.2016 20:02 6,1 C 96 % 1013,7 hPa 0,0 l/m 5,2 km/h (1 Bft) O 84 0 min 0,000 mm 0,0 UV-I 0 W/m 5,5 C 6,1 C 9,7 km/h (2 Bft) 100,00 %
20.10.2016 20:04 6,1 C 96 % 1013,8 hPa 0,0 l/m 4,8 km/h (1 Bft) O 88 0 min 0,000 mm 0,0 UV-I 0 W/m 5,5 C 6,1 C 6,4 km/h (2 Bft) 100,00 %
20.10.2016 20:06 6,1 C 95 % 1013,8 hPa 0,0 l/m 4,0 km/h (1 Bft) O-NO 69 0 min 0,000 mm 0,0 UV-I 0 W/m 5,4 C 6,1 C 6,4 km/h (2 Bft) 100,00 %
20.10.2016 20:08 6,1 C 95 % 1013,7 hPa 0,0 l/m 4,7 km/h (1 Bft) O-NO 76 0 min 0,000 mm 0,0 UV-I 0 W/m 5,4 C 6,1 C 8,0 km/h (2 Bft) 100,00 %
20.10.2016 20:10 6,1 C 95 % 1013,7 hPa 0,0 l/m 4,6 km/h (1 Bft) O-NO 76 0 min 0,000 mm 0,0 UV-I 0 W/m 5,4 C 6,1 C 6,4 km/h (2 Bft) 100,00 %
20.10.2016 20:12 6,0 C 95 % 1013,7 hPa 0,0 l/m 3,0 km/h (1 Bft) O 82 0 min 0,000 mm 0,0 UV-I 0 W/m 5,3 C 6,0 C 4,8 km/h (1 Bft) 100,00 %
20.10.2016 20:14 5,9 C 95 % 1013,7 hPa 0,0 l/m 2,8 km/h (1 Bft) O 88 0 min 0,000 mm 0,0 UV-I 0 W/m 5,2 C 5,9 C 4,8 km/h (1 Bft) 100,00 %
20.10.2016 20:16 5,8 C 95 % 1013,7 hPa 0,0 l/m 0,1 km/h (0 Bft) O 88 0 min 0,000 mm 0,0 UV-I 0 W/m 5,1 C 5,8 C 1,6 km/h (1 Bft) 100,00 %
20.10.2016 20:18 5,6 C 95 % 1013,7 hPa 0,0 l/m 0,0 km/h (0 Bft) O 88 0 min 0,000 mm 0,0 UV-I 0 W/m 4,9 C 5,6 C 0,0 km/h (0 Bft) 100,00 %
20.10.2016 20:20 5,5 C 95 % 1013,6 hPa 0,0 l/m 0,0 km/h (0 Bft) O 88 0 min 0,000 mm 0,0 UV-I 0 W/m 4,8 C 5,5 C 0,0 km/h (0 Bft) 100,00 %
20.10.2016 20:22 5,4 C 95 % 1013,6 hPa 0,0 l/m 0,0 km/h (0 Bft) O 88 0 min 0,000 mm 0,0 UV-I 0 W/m 4,7 C 5,4 C 0,0 km/h (0 Bft) 100,00 %
20.10.2016 20:24 5,4 C 95 % 1013,6 hPa 0,0 l/m 0,0 km/h (0 Bft) O 88 0 min 0,000 mm 0,0 UV-I 0 W/m 4,7 C 5,4 C 0,0 km/h (0 Bft) 100,00 %
20.10.2016 20:26 5,3 C 96 % 1013,6 hPa 0,0 l/m 0,0 km/h (0 Bft) O 88 0 min 0,000 mm 0,0 UV-I 0 W/m 4,7 C 5,3 C 0,0 km/h (0 Bft) 100,00 %
20.10.2016 20:28 5,3 C 95 % 1013,6 hPa 0,0 l/m 0,7 km/h (0 Bft) O 88 0 min 0,000 mm 0,0 UV-I 0 W/m 4,6 C 5,3 C 3,2 km/h (1 Bft) 100,00 %
20.10.2016 20:30 5,2 C 96 % 1013,6 hPa 0,0 l/m 2,2 km/h (1 Bft) O 88 0 min 0,000 mm 0,0 UV-I 0 W/m 4,6 C 5,2 C 3,2 km/h (1 Bft) 100,00 %
20.10.2016 20:32 5,1 C 96 % 1013,6 hPa 0,0 l/m 3,3 km/h (1 Bft) O 87 0 min 0,000 mm 0,0 UV-I 0 W/m 4,5 C 5,1 C 4,8 km/h (1 Bft) 100,00 %
20.10.2016 20:34 5,1 C 96 % 1013,6 hPa 0,0 l/m 2,6 km/h (1 Bft) O 87 0 min 0,000 mm 0,0 UV-I 0 W/m 4,5 C 5,1 C 3,2 km/h (1 Bft) 100,00 %
20.10.2016 20:36 5,1 C 96 % 1013,6 hPa 0,0 l/m 1,6 km/h (1 Bft) O 87 0 min 0,000 mm 0,0 UV-I 0 W/m 4,5 C 5,1 C 3,2 km/h (1 Bft) 100,00 %
20.10.2016 20:38 5,1 C 96 % 1013,6 hPa 0,0 l/m 0,8 km/h (0 Bft) O 87 0 min 0,000 mm 0,0 UV-I 0 W/m 4,5 C 5,1 C 1,6 km/h (1 Bft) 98,00 %
20.10.2016 20:40 5,1 C 96 % 1013,5 hPa 0,0 l/m 0,1 km/h (0 Bft) O 88 0 min 0,000 mm 0,0 UV-I 0 W/m 4,5 C 5,1 C 1,6 km/h (1 Bft) 98,00 %
20.10.2016 20:42 5,0 C 96 % 1013,5 hPa 0,0 l/m 0,0 km/h (0 Bft) O 87 0 min 0,000 mm 0,0 UV-I 0 W/m 4,4 C 5,0 C 1,6 km/h (1 Bft) 100,00 %
20.10.2016 20:44 4,9 C 96 % 1013,5 hPa 0,0 l/m 0,1 km/h (0 Bft) O 87 0 min 0,000 mm 0,0 UV-I 0 W/m 4,3 C 4,9 C 1,6 km/h (1 Bft) 97,37 %
20.10.2016 20:46 4,8 C 96 % 1013,5 hPa 0,0 l/m 1,2 km/h (1 Bft) O 87 0 min 0,000 mm 0,0 UV-I 0 W/m 4,2 C 4,8 C 1,6 km/h (1 Bft) 100,00 %
20.10.2016 20:48 4,8 C 96 % 1013,5 hPa 0,0 l/m 1,4 km/h (1 Bft) O 87 0 min 0,000 mm 0,0 UV-I 0 W/m 4,2 C 4,8 C 1,6 km/h (1 Bft) 100,00 %
20.10.2016 20:50 4,7 C 96 % 1013,6 hPa 0,0 l/m 0,1 km/h (0 Bft) O 88 0 min 0,000 mm 0,0 UV-I 0 W/m 4,1 C 4,7 C 1,6 km/h (1 Bft) 97,37 %
20.10.2016 20:52 4,6 C 96 % 1013,5 hPa 0,0 l/m 0,0 km/h (0 Bft) O 88 0 min 0,000 mm 0,0 UV-I 0 W/m 4,0 C 4,6 C 0,0 km/h (0 Bft) 100,00 %
20.10.2016 20:54 4,5 C 96 % 1013,5 hPa 0,0 l/m 0,0 km/h (0 Bft) O 88 0 min 0,000 mm 0,0 UV-I 0 W/m 3,9 C 4,5 C 0,0 km/h (0 Bft) 100,00 %
20.10.2016 20:56 4,3 C 95 % 1013,5 hPa 0,0 l/m 0,0 km/h (0 Bft) O 87 0 min 0,000 mm 0,0 UV-I 0 W/m 3,6 C 4,3 C 0,0 km/h (0 Bft) 100,00 %
20.10.2016 20:58 4,2 C 96 % 1013,5 hPa 0,0 l/m 0,2 km/h (0 Bft) O 87 0 min 0,000 mm 0,0 UV-I 0 W/m 3,6 C 4,2 C 1,6 km/h (1 Bft) 100,00 %
20.10.2016 21:00 4,1 C 96 % 1013,6 hPa 0,0 l/m 1,6 km/h (1 Bft) O 87 0 min 0,000 mm 0,0 UV-I 0 W/m 3,5 C 4,1 C 3,2 km/h (1 Bft) 98,18 %
20.10.2016 21:02 3,9 C 96 % 1013,6 hPa 0,0 l/m 0,8 km/h (0 Bft) O 88 0 min 0,000 mm 0,0 UV-I 0 W/m 3,3 C 3,9 C 1,6 km/h (1 Bft) 97,92 %
20.10.2016 21:05 4,1 C 97 % 1013,6 hPa 0,0 l/m 1,6 km/h (1 Bft) O 88 0 min 0,000 mm 0,0 UV-I 0 W/m 3,7 C 4,1 C 3,2 km/h (1 Bft) 100,00 %
20.10.2016 21:06 4,1 C 97 % 1013,6 hPa 0,0 l/m 1,9 km/h (1 Bft) O 88 0 min 0,000 mm 0,0 UV-I 0 W/m 3,7 C 4,1 C 3,2 km/h (1 Bft) 100,00 %
20.10.2016 21:08 4,1 C 97 % 1013,6 hPa 0,0 l/m 2,3 km/h (1 Bft) O 88 0 min 0,000 mm 0,0 UV-I 0 W/m 3,7 C 4,1 C 3,2 km/h (1 Bft) 100,00 %
20.10.2016 21:10 3,9 C 96 % 1013,6 hPa 0,0 l/m 1,8 km/h (1 Bft) O 88 0 min 0,000 mm 0,0 UV-I 0 W/m 3,3 C 3,9 C 3,2 km/h (1 Bft) 100,00 %
20.10.2016 21:12 3,9 C 96 % 1013,6 hPa 0,0 l/m 0,4 km/h (0 Bft) O 88 0 min 0,000 mm 0,0 UV-I 0 W/m 3,3 C 3,9 C 1,6 km/h (1 Bft) 98,00 %
20.10.2016 21:14 3,9 C 97 % 1013,5 hPa 0,0 l/m 0,4 km/h (0 Bft) O 88 0 min 0,000 mm 0,0 UV-I 0 W/m 3,5 C 3,9 C 1,6 km/h (1 Bft) 100,00 %
20.10.2016 21:16 4,0 C 97 % 1013,5 hPa 0,0 l/m 0,2 km/h (0 Bft) O 88 0 min 0,000 mm 0,0 UV-I 0 W/m 3,6 C 4,0 C 1,6 km/h (1 Bft) 98,00 %
20.10.2016 21:18 4,1 C 97 % 1013,5 hPa 0,0 l/m 0,4 km/h (0 Bft) O 88 0 min 0,000 mm 0,0 UV-I 0 W/m 3,7 C 4,1 C 1,6 km/h (1 Bft) 97,87 %
20.10.2016 21:20 4,1 C 97 % 1013,5 hPa 0,0 l/m 0,5 km/h (0 Bft) O 88 0 min 0,000 mm 0,0 UV-I 0 W/m 3,7 C 4,1 C 1,6 km/h (1 Bft) 97,87 %
20.10.2016 21:22 3,9 C 97 % 1013,4 hPa 0,0 l/m 0,5 km/h (0 Bft) O 88 0 min 0,000 mm 0,0 UV-I 0 W/m 3,5 C 3,9 C 1,6 km/h (1 Bft) 97,37 %
20.10.2016 21:24 3,7 C 96 % 1013,4 hPa 0,0 l/m 0,0 km/h (0 Bft) O 87 0 min 0,000 mm 0,0 UV-I 0 W/m 3,1 C 3,7 C 0,0 km/h (0 Bft) 97,56 %
20.10.2016 21:26 3,6 C 96 % 1013,4 hPa 0,0 l/m 1,9 km/h (1 Bft) O 88 0 min 0,000 mm 0,0 UV-I 0 W/m 3,0 C 3,6 C 3,2 km/h (1 Bft) 98,11 %
20.10.2016 21:28 3,6 C 97 % 1013,4 hPa 0,0 l/m 2,4 km/h (1 Bft) O 88 0 min 0,000 mm 0,0 UV-I 0 W/m 3,2 C 3,6 C 3,2 km/h (1 Bft) 97,44 %
20.10.2016 21:30 3,7 C 97 % 1013,4 hPa 0,0 l/m 0,3 km/h (0 Bft) O 87 0 min 0,000 mm 0,0 UV-I 0 W/m 3,3 C 3,7 C 1,6 km/h (1 Bft) 96,88 %
20.10.2016 21:32 3,7 C 97 % 1013,4 hPa 0,0 l/m 0,4 km/h (0 Bft) O 88 0 min 0,000 mm 0,0 UV-I 0 W/m 3,3 C 3,7 C 1,6 km/h (1 Bft) 95,74 %
20.10.2016 21:34 3,8 C 97 % 1013,4 hPa 0,0 l/m 0,4 km/h (0 Bft) O 88 0 min 0,000 mm 0,0 UV-I 0 W/m 3,4 C 3,8 C 1,6 km/h (1 Bft) 97,37 %
20.10.2016 21:36 3,8 C 97 % 1013,4 hPa 0,0 l/m 0,3 km/h (0 Bft) O 87 0 min 0,000 mm 0,0 UV-I 0 W/m 3,4 C 3,8 C 1,6 km/h (1 Bft) 98,00 %
20.10.2016 21:38 3,7 C 97 % 1013,4 hPa 0,0 l/m 0,4 km/h (0 Bft) O 88 0 min 0,000 mm 0,0 UV-I 0 W/m 3,3 C 3,7 C 1,6 km/h (1 Bft) 97,92 %
20.10.2016 21:40 3,6 C 97 % 1013,4 hPa 0,0 l/m 0,3 km/h (0 Bft) O 88 0 min 0,000 mm 0,0 UV-I 0 W/m 3,2 C 3,6 C 1,6 km/h (1 Bft) 94,00 %
20.10.2016 21:42 3,6 C 97 % 1013,4 hPa 0,0 l/m 0,7 km/h (0 Bft) O 88 0 min 0,000 mm 0,0 UV-I 0 W/m 3,2 C 3,6 C 1,6 km/h (1 Bft) 97,56 %
20.10.2016 21:44 3,6 C 97 % 1013,4 hPa 0,0 l/m 0,2 km/h (0 Bft) O 88 0 min 0,000 mm 0,0 UV-I 0 W/m 3,2 C 3,6 C 1,6 km/h (1 Bft) 98,11 %
20.10.2016 21:46 3,4 C 97 % 1013,4 hPa 0,0 l/m 0,0 km/h (0 Bft) O 88 0 min 0,000 mm 0,0 UV-I 0 W/m 3,0 C 3,4 C 0,0 km/h (0 Bft) 97,14 %
20.10.2016 21:48 3,4 C 97 % 1013,4 hPa 0,0 l/m 0,9 km/h (0 Bft) O 88 0 min 0,000 mm 0,0 UV-I 0 W/m 3,0 C 3,4 C 3,2 km/h (1 Bft) 98,00 %
20.10.2016 21:50 3,5 C 97 % 1013,4 hPa 0,0 l/m 0,0 km/h (0 Bft) O 88 0 min 0,000 mm 0,0 UV-I 0 W/m 3,1 C 3,5 C 1,6 km/h (1 Bft) 97,87 %
20.10.2016 21:52 3,6 C 97 % 1013,4 hPa 0,0 l/m 1,0 km/h (0 Bft) O 87 0 min 0,000 mm 0,0 UV-I 0 W/m 3,2 C 3,6 C 4,8 km/h (1 Bft) 98,00 %
20.10.2016 21:54 3,6 C 97 % 1013,4 hPa 0,0 l/m 2,9 km/h (1 Bft) O 88 0 min 0,000 mm 0,0 UV-I 0 W/m 3,2 C 3,6 C 4,8 km/h (1 Bft) 98,11 %
20.10.2016 21:56 3,4 C 97 % 1013,4 hPa 0,0 l/m 2,9 km/h (1 Bft) O 88 0 min 0,000 mm 0,0 UV-I 0 W/m 3,0 C 3,4 C 3,2 km/h (1 Bft) 100,00 %
20.10.2016 21:58 3,3 C 97 % 1013,4 hPa 0,0 l/m 2,5 km/h (1 Bft) O 88 0 min 0,000 mm 0,0 UV-I 0 W/m 2,9 C 3,3 C 3,2 km/h (1 Bft) 98,21 %
20.10.2016 22:00 3,2 C 97 % 1013,5 hPa 0,0 l/m 0,3 km/h (0 Bft) O 88 0 min 0,000 mm 0,0 UV-I 0 W/m 2,8 C 3,2 C 1,6 km/h (1 Bft) 97,37 %
20.10.2016 22:02 3,4 C 97 % 1013,5 hPa 0,0 l/m 0,0 km/h (0 Bft) O 88 0 min 0,000 mm 0,0 UV-I 0 W/m 3,0 C 3,4 C 0,0 km/h (0 Bft) 100,00 %
20.10.2016 22:04 3,4 C 97 % 1013,5 hPa 0,0 l/m 1,2 km/h (1 Bft) O 88 0 min 0,000 mm 0,0 UV-I 0 W/m 3,0 C 3,4 C 3,2 km/h (1 Bft) 100,00 %
20.10.2016 22:06 3,4 C 97 % 1013,5 hPa 0,0 l/m 1,2 km/h (1 Bft) O 88 0 min 0,000 mm 0,0 UV-I 0 W/m 3,0 C 3,4 C 1,6 km/h (1 Bft) 100,00 %
20.10.2016 22:08 3,4 C 97 % 1013,5 hPa 0,0 l/m 0,4 km/h (0 Bft) O 87 0 min 0,000 mm 0,0 UV-I 0 W/m 3,0 C 3,4 C 1,6 km/h (1 Bft) 100,00 %
20.10.2016 22:10 3,4 C 97 % 1013,5 hPa 0,0 l/m 0,8 km/h (0 Bft) O 88 0 min 0,000 mm 0,0 UV-I 0 W/m 3,0 C 3,4 C 1,6 km/h (1 Bft) 100,00 %
20.10.2016 22:12 3,4 C 97 % 1013,6 hPa 0,0 l/m 0,2 km/h (0 Bft) O 87 0 min 0,000 mm 0,0 UV-I 0 W/m 3,0 C 3,4 C 1,6 km/h (1 Bft) 100,00 %
20.10.2016 22:14 3,4 C 97 % 1013,6 hPa 0,0 l/m 0,0 km/h (0 Bft) O 88 0 min 0,000 mm 0,0 UV-I 0 W/m 3,0 C 3,4 C 0,0 km/h (0 Bft) 97,92 %
20.10.2016 22:16 3,4 C 97 % 1013,5 hPa 0,0 l/m 0,0 km/h (0 Bft) O 88 0 min 0,000 mm 0,0 UV-I 0 W/m 3,0 C 3,4 C 0,0 km/h (0 Bft) 100,00 %
20.10.2016 22:18 3,4 C 97 % 1013,6 hPa 0,0 l/m 0,0 km/h (0 Bft) O 88 0 min 0,000 mm 0,0 UV-I 0 W/m 3,0 C 3,4 C 1,6 km/h (1 Bft) 100,00 %
20.10.2016 22:20 3,3 C 97 % 1013,5 hPa 0,0 l/m 2,1 km/h (1 Bft) O 88 0 min 0,000 mm 0,0 UV-I 0 W/m 2,9 C 3,3 C 3,2 km/h (1 Bft) 95,74 %
20.10.2016 22:22 3,1 C 97 % 1013,5 hPa 0,0 l/m 1,9 km/h (1 Bft) O 87 0 min 0,000 mm 0,0 UV-I 0 W/m 2,7 C 3,1 C 3,2 km/h (1 Bft) 100,00 %
20.10.2016 22:24 3,0 C 97 % 1013,6 hPa 0,0 l/m 0,1 km/h (0 Bft) O 88 0 min 0,000 mm 0,0 UV-I 0 W/m 2,6 C 3,0 C 1,6 km/h (1 Bft) 100,00 %
20.10.2016 22:26 3,1 C 97 % 1013,6 hPa 0,0 l/m 0,2 km/h (0 Bft) O 87 0 min 0,000 mm 0,0 UV-I 0 W/m 2,7 C 3,1 C 1,6 km/h (1 Bft) 100,00 %
20.10.2016 22:28 3,2 C 97 % 1013,6 hPa 0,0 l/m 0,0 km/h (0 Bft) O 87 0 min 0,000 mm 0,0 UV-I 0 W/m 2,8 C 3,2 C 0,0 km/h (0 Bft) 100,00 %
20.10.2016 22:30 3,3 C 97 % 1013,6 hPa 0,0 l/m 0,0 km/h (0 Bft) O 88 0 min 0,000 mm 0,0 UV-I 0 W/m 2,9 C 3,3 C 0,0 km/h (0 Bft) 100,00 %
20.10.2016 22:32 3,3 C 97 % 1013,6 hPa 0,0 l/m 0,0 km/h (0 Bft) O 87 0 min 0,000 mm 0,0 UV-I 0 W/m 2,9 C 3,3 C 1,6 km/h (1 Bft) 100,00 %
20.10.2016 22:34 3,3 C 97 % 1013,6 hPa 0,0 l/m 0,0 km/h (0 Bft) O 87 0 min 0,000 mm 0,0 UV-I 0 W/m 2,9 C 3,3 C 0,0 km/h (0 Bft) 98,00 %
20.10.2016 22:36 3,3 C 97 % 1013,6 hPa 0,0 l/m 0,0 km/h (0 Bft) O 87 0 min 0,000 mm 0,0 UV-I 0 W/m 2,9 C 3,3 C 1,6 km/h (1 Bft) 100,00 %
20.10.2016 22:38 3,2 C 97 % 1013,6 hPa 0,0 l/m 0,8 km/h (0 Bft) O 88 0 min 0,000 mm 0,0 UV-I 0 W/m 2,8 C 3,2 C 1,6 km/h (1 Bft) 97,73 %
20.10.2016 22:40 3,2 C 97 % 1013,6 hPa 0,0 l/m 0,0 km/h (0 Bft) O 88 0 min 0,000 mm 0,0 UV-I 0 W/m 2,8 C 3,2 C 0,0 km/h (0 Bft) 98,11 %
20.10.2016 22:42 3,1 C 97 % 1013,6 hPa 0,0 l/m 0,0 km/h (0 Bft) O 88 0 min 0,000 mm 0,0 UV-I 0 W/m 2,7 C 3,1 C 0,0 km/h (0 Bft) 100,00 %
20.10.2016 22:44 3,1 C 97 % 1013,6 hPa 0,0 l/m 0,0 km/h (0 Bft) O 88 0 min 0,000 mm 0,0 UV-I 0 W/m 2,7 C 3,1 C 0,0 km/h (0 Bft) 100,00 %
20.10.2016 22:46 3,1 C 97 % 1013,5 hPa 0,0 l/m 0,0 km/h (0 Bft) O 88 0 min 0,000 mm 0,0 UV-I 0 W/m 2,7 C 3,1 C 0,0 km/h (0 Bft) 100,00 %
20.10.2016 22:48 3,0 C 97 % 1013,5 hPa 0,0 l/m 0,0 km/h (0 Bft) O 87 0 min 0,000 mm 0,0 UV-I 0 W/m 2,6 C 3,0 C 0,0 km/h (0 Bft) 100,00 %
20.10.2016 22:50 2,8 C 97 % 1013,4 hPa 0,0 l/m 0,0 km/h (0 Bft) O 88 0 min 0,000 mm 0,0 UV-I 0 W/m 2,4 C 2,8 C 0,0 km/h (0 Bft) 100,00 %
20.10.2016 22:52 2,7 C 97 % 1013,5 hPa 0,0 l/m 0,0 km/h (0 Bft) O 88 0 min 0,000 mm 0,0 UV-I 0 W/m 2,3 C 2,7 C 0,0 km/h (0 Bft) 100,00 %
20.10.2016 22:54 2,7 C 97 % 1013,4 hPa 0,0 l/m 0,0 km/h (0 Bft) O 88 0 min 0,000 mm 0,0 UV-I 0 W/m 2,3 C 2,7 C 0,0 km/h (0 Bft) 100,00 %
20.10.2016 22:56 2,8 C 97 % 1013,5 hPa 0,0 l/m 1,1 km/h (1 Bft) O 87 0 min 0,000 mm 0,0 UV-I 0 W/m 2,4 C 2,8 C 3,2 km/h (1 Bft) 100,00 %
20.10.2016 22:58 2,9 C 97 % 1013,5 hPa 0,0 l/m 0,0 km/h (0 Bft) O 87 0 min 0,000 mm 0,0 UV-I 0 W/m 2,5 C 2,9 C 1,6 km/h (1 Bft) 97,87 %
20.10.2016 23:00 2,9 C 97 % 1013,4 hPa 0,0 l/m 0,5 km/h (0 Bft) O 88 0 min 0,000 mm 0,0 UV-I 0 W/m 2,5 C 2,9 C 1,6 km/h (1 Bft) 100,00 %
20.10.2016 23:02 3,1 C 98 % 1013,5 hPa 0,0 l/m 0,0 km/h (0 Bft) O 88 0 min 0,000 mm 0,0 UV-I 0 W/m 2,8 C 3,1 C 0,0 km/h (0 Bft) 100,00 %
20.10.2016 23:04 3,1 C 98 % 1013,4 hPa 0,0 l/m 0,4 km/h (0 Bft) O 87 0 min 0,000 mm 0,0 UV-I 0 W/m 2,8 C 3,1 C 3,2 km/h (1 Bft) 100,00 %
20.10.2016 23:06 3,0 C 97 % 1013,4 hPa 0,0 l/m 1,5 km/h (1 Bft) O 88 0 min 0,000 mm 0,0 UV-I 0 W/m 2,6 C 3,0 C 3,2 km/h (1 Bft) 100,00 %
20.10.2016 23:08 2,9 C 97 % 1013,4 hPa 0,0 l/m 0,9 km/h (0 Bft) O 88 0 min 0,000 mm 0,0 UV-I 0 W/m 2,5 C 2,9 C 1,6 km/h (1 Bft) 100,00 %
20.10.2016 23:10 3,0 C 97 % 1013,4 hPa 0,0 l/m 0,0 km/h (0 Bft) O 87 0 min 0,000 mm 0,0 UV-I 0 W/m 2,6 C 3,0 C 1,6 km/h (1 Bft) 100,00 %
20.10.2016 23:12 3,1 C 98 % 1013,5 hPa 0,0 l/m 0,0 km/h (0 Bft) O 88 0 min 0,000 mm 0,0 UV-I 0 W/m 2,8 C 3,1 C 0,0 km/h (0 Bft) 98,00 %
20.10.2016 23:14 3,1 C 98 % 1013,4 hPa 0,0 l/m 0,7 km/h (0 Bft) O 88 0 min 0,000 mm 0,0 UV-I 0 W/m 2,8 C 3,1 C 3,2 km/h (1 Bft) 100,00 %
20.10.2016 23:16 3,2 C 98 % 1013,5 hPa 0,0 l/m 3,3 km/h (1 Bft) O 90 0 min 0,000 mm 0,0 UV-I 0 W/m 2,9 C 3,2 C 4,8 km/h (1 Bft) 100,00 %
20.10.2016 23:18 3,2 C 98 % 1013,5 hPa 0,0 l/m 4,1 km/h (1 Bft) O-SO 111 0 min 0,000 mm 0,0 UV-I 0 W/m 2,9 C 3,2 C 4,8 km/h (1 Bft) 100,00 %
20.10.2016 23:20 3,2 C 98 % 1013,6 hPa 0,0 l/m 1,2 km/h (1 Bft) O-SO 111 0 min 0,000 mm 0,0 UV-I 0 W/m 2,9 C 3,2 C 3,2 km/h (1 Bft) 98,00 %
20.10.2016 23:22 3,0 C 97 % 1013,6 hPa 0,0 l/m 0,4 km/h (0 Bft) O-SO 111 0 min 0,000 mm 0,0 UV-I 0 W/m 2,6 C 3,0 C 1,6 km/h (1 Bft) 100,00 %
20.10.2016 23:24 2,9 C 97 % 1013,6 hPa 0,0 l/m 1,3 km/h (1 Bft) O-SO 111 0 min 0,000 mm 0,0 UV-I 0 W/m 2,5 C 2,9 C 3,2 km/h (1 Bft) 97,87 %
20.10.2016 23:26 2,9 C 97 % 1013,6 hPa 0,0 l/m 2,4 km/h (1 Bft) SO 141 0 min 0,000 mm 0,0 UV-I 0 W/m 2,5 C 2,9 C 3,2 km/h (1 Bft) 97,56 %
20.10.2016 23:28 2,9 C 97 % 1013,6 hPa 0,0 l/m 1,3 km/h (1 Bft) SO 141 0 min 0,000 mm 0,0 UV-I 0 W/m 2,5 C 2,9 C 3,2 km/h (1 Bft) 94,34 %
20.10.2016 23:30 2,7 C 97 % 1013,6 hPa 0,0 l/m 3,3 km/h (1 Bft) SO 139 0 min 0,000 mm 0,0 UV-I 0 W/m 2,3 C 2,7 C 4,8 km/h (1 Bft) 97,87 %
20.10.2016 23:32 2,8 C 97 % 1013,7 hPa 0,0 l/m 1,1 km/h (1 Bft) SO 139 0 min 0,000 mm 0,0 UV-I 0 W/m 2,4 C 2,8 C 3,2 km/h (1 Bft) 97,87 %
20.10.2016 23:34 2,8 C 98 % 1013,7 hPa 0,0 l/m 0,0 km/h (0 Bft) SO 139 0 min 0,000 mm 0,0 UV-I 0 W/m 2,5 C 2,8 C 0,0 km/h (0 Bft) 93,62 %
20.10.2016 23:36 2,8 C 98 % 1013,7 hPa 0,0 l/m 0,8 km/h (0 Bft) SO 139 0 min 0,000 mm 0,0 UV-I 0 W/m 2,5 C 2,8 C 3,2 km/h (1 Bft) 97,92 %
20.10.2016 23:38 2,7 C 97 % 1013,6 hPa 0,0 l/m 2,8 km/h (1 Bft) SO 139 0 min 0,000 mm 0,0 UV-I 0 W/m 2,3 C 2,7 C 4,8 km/h (1 Bft) 95,74 %
20.10.2016 23:40 2,6 C 97 % 1013,7 hPa 0,0 l/m 2,0 km/h (1 Bft) SO 139 0 min 0,000 mm 0,0 UV-I 0 W/m 2,2 C 2,6 C 3,2 km/h (1 Bft) 97,87 %
20.10.2016 23:42 2,6 C 97 % 1013,8 hPa 0,0 l/m 2,4 km/h (1 Bft) O 99 0 min 0,000 mm 0,0 UV-I 0 W/m 2,2 C 2,6 C 4,8 km/h (1 Bft) 93,62 %
20.10.2016 23:44 2,7 C 97 % 1013,8 hPa 0,0 l/m 3,2 km/h (1 Bft) O 98 0 min 0,000 mm 0,0 UV-I 0 W/m 2,3 C 2,7 C 4,8 km/h (1 Bft) 96,00 %
20.10.2016 23:46 2,7 C 97 % 1013,9 hPa 0,0 l/m 2,1 km/h (1 Bft) O 98 0 min 0,000 mm 0,0 UV-I 0 W/m 2,3 C 2,7 C 4,8 km/h (1 Bft) 96,00 %
20.10.2016 23:48 2,7 C 97 % 1013,9 hPa 0,0 l/m 0,3 km/h (0 Bft) O 98 0 min 0,000 mm 0,0 UV-I 0 W/m 2,3 C 2,7 C 1,6 km/h (1 Bft) 97,37 %
20.10.2016 23:50 2,6 C 97 % 1013,9 hPa 0,0 l/m 1,5 km/h (1 Bft) O 98 0 min 0,000 mm 0,0 UV-I 0 W/m 2,2 C 2,6 C 3,2 km/h (1 Bft) 95,74 %
20.10.2016 23:52 2,7 C 97 % 1013,8 hPa 0,0 l/m 4,6 km/h (1 Bft) O-NO 78 0 min 0,000 mm 0,0 UV-I 0 W/m 2,3 C 2,7 C 6,4 km/h (2 Bft) 95,74 %
20.10.2016 23:54 2,8 C 98 % 1013,8 hPa 0,0 l/m 4,1 km/h (1 Bft) O-NO 78 0 min 0,000 mm 0,0 UV-I 0 W/m 2,5 C 2,8 C 6,4 km/h (2 Bft) 97,87 %
20.10.2016 23:56 2,9 C 98 % 1013,8 hPa 0,0 l/m 4,5 km/h (1 Bft) O-NO 71 0 min 0,000 mm 0,0 UV-I 0 W/m 2,6 C 2,9 C 8,0 km/h (2 Bft) 97,87 %
20.10.2016 23:58 2,9 C 98 % 1013,8 hPa 0,0 l/m 6,4 km/h (2 Bft) O-NO 71 0 min 0,000 mm 0,0 UV-I 0 W/m 2,6 C 2,9 C 11,3 km/h (2 Bft) 97,87 %
_ Min-Zeit 23:40 16:24 21:22 - 02:46 - - - - - - 23:40 23:40 02:46 19:28
Minimum _ 2,6 C 77 % 1013,4 hPa - 0,0 km/h (0 Bft) - - - - - - 2,2 C 2,6 C 0,0 km/h (0 Bft) 91,49 %
_ Max-Zeit 16:00 00:24 02:12 00:04 17:54 - - 17:10 10:00 00:00 10:04 13:56 16:00 10:24 00:04
Maximum _ 10,4 C 98 % 1016,5 hPa 0,2 l/m 9,3 km/h
O-NO (2 Bft)
- - 2 min 0,025 mm 0,0 UV-I 76 W/m 8,2 C 10,4 C 12,9 km/h
SW (3 Bft)
100,00 %
Durchschnitt _ 7,3 C 94 % 1014,8 hPa #4,6 l/m 2,9 km/h (1 Bft) O - #46 min. #0,025 mm 0,0 UV-I 67 W/m 6,4 C 7,3 C 5,1 km/h (1 Bft) 98,67 %